| time (UTC) | temp F | wind direction | speed MPH | gust MPH | rain 1hr in | rain 24hr in | rain mn in | humidity % | barometer mb |
| 20260503005905 | 56 | 258 | 1.0 | 4.0 | 0.00 | 0.00 | 0.00 | 72 | 1018.6 |
| 20260503005712 | 56 | 259 | 2.0 | 4.0 | 0.00 | 0.00 | 0.00 | 72 | 1018.6 |
| 20260503005605 | 56 | 260 | 2.0 | 4.0 | 0.00 | 0.00 | 0.00 | 72 | 1018.7 |
| 20260503005505 | 56 | 259 | 2.0 | 4.0 | 0.00 | 0.00 | 0.00 | 72 | 1018.5 |
| 20260503005405 | 56 | 258 | 2.0 | 4.0 | 0.00 | 0.00 | 0.00 | 72 | 1018.6 |
| 20260503005305 | 57 | 258 | 1.0 | 4.0 | 0.00 | 0.00 | 0.00 | 72 | 1018.7 |
| 20260503005204 | 57 | 258 | 1.0 | 3.0 | 0.00 | 0.00 | 0.00 | 72 | 1018.6 |
| 20260503005104 | 57 | 256 | 1.0 | 3.0 | 0.00 | 0.00 | 0.00 | 72 | 1018.5 |
| 20260503005005 | 57 | 250 | 1.0 | 3.0 | 0.00 | 0.00 | 0.00 | 72 | 1018.6 |
| 20260503004906 | 57 | 246 | 1.0 | 3.0 | 0.00 | 0.00 | 0.00 | 72 | 1018.7 |
| 20260503004605 | 57 | 227 | 1.0 | 3.0 | 0.00 | 0.00 | 0.00 | 71 | 1018.7 |
| 20260503004505 | 57 | 225 | 1.0 | 2.0 | 0.00 | 0.00 | 0.00 | 71 | 1018.8 |
| 20260503004405 | 57 | 225 | 1.0 | 2.0 | 0.00 | 0.00 | 0.00 | 71 | 1018.8 |
| 20260503004305 | 57 | 224 | 1.0 | 3.0 | 0.00 | 0.00 | 0.00 | 71 | 1018.7 |
| 20260503004206 | 57 | 223 | 1.0 | 4.0 | 0.00 | 0.00 | 0.00 | 71 | 1018.6 |
| 20260503004104 | 57 | 223 | 1.0 | 4.0 | 0.00 | 0.00 | 0.00 | 71 | 1018.8 |
| 20260503003905 | 57 | 222 | 2.0 | 4.0 | 0.00 | 0.00 | 0.00 | 72 | 1018.8 |
| 20260503003805 | 57 | 221 | 2.0 | 4.0 | 0.00 | 0.00 | 0.00 | 72 | 1018.7 |
| 20260503003712 | 57 | 221 | 2.0 | 4.0 | 0.00 | 0.00 | 0.00 | 72 | 1018.8 |
| 20260503003605 | 56 | 221 | 2.0 | 4.0 | 0.00 | 0.00 | 0.00 | 72 | 1018.7 |
| 20260503003505 | 56 | 221 | 2.0 | 4.0 | 0.00 | 0.00 | 0.00 | 72 | 1018.8 |
| 20260503003405 | 56 | 221 | 2.0 | 4.0 | 0.00 | 0.00 | 0.00 | 72 | 1018.8 |
| 20260503003304 | 56 | 221 | 2.0 | 4.0 | 0.00 | 0.00 | 0.00 | 72 | 1018.8 |
| 20260503003104 | 56 | 221 | 2.0 | 4.0 | 0.00 | 0.00 | 0.00 | 72 | 1018.9 |
| 20260503003005 | 56 | 221 | 2.0 | 4.0 | 0.00 | 0.00 | 0.00 | 72 | 1019.0 |
| 20260503002804 | 56 | 221 | 2.0 | 3.0 | 0.00 | 0.00 | 0.00 | 72 | 1018.9 |
| 20260503002711 | 56 | 221 | 1.0 | 3.0 | 0.00 | 0.00 | 0.00 | 72 | 1018.9 |
| 20260503002504 | 57 | 220 | 1.0 | 3.0 | 0.00 | 0.00 | 0.00 | 71 | 1018.9 |
| 20260503002405 | 57 | 220 | 1.0 | 3.0 | 0.00 | 0.00 | 0.00 | 71 | 1019.0 |
| 20260503002305 | 57 | 220 | 1.0 | 2.0 | 0.00 | 0.00 | 0.00 | 71 | 1019.0 |
| 20260503002205 | 57 | 220 | 1.0 | 3.0 | 0.00 | 0.00 | 0.00 | 71 | 1019.1 |
| 20260503002105 | 57 | 218 | 1.0 | 3.0 | 0.00 | 0.00 | 0.00 | 71 | 1019.0 |
| 20260503002005 | 57 | 218 | 1.0 | 3.0 | 0.00 | 0.00 | 0.00 | 71 | 1019.0 |
| 20260503001904 | 57 | 216 | 1.0 | 3.0 | 0.00 | 0.00 | 0.00 | 71 | 1019.0 |
| 20260503001804 | 57 | 213 | 1.0 | 3.0 | 0.00 | 0.00 | 0.00 | 71 | 1019.1 |
| 20260503001712 | 57 | 216 | 1.0 | 3.0 | 0.00 | 0.00 | 0.00 | 71 | 1019.0 |
| 20260503001605 | 57 | 219 | 1.0 | 4.0 | 0.00 | 0.00 | 0.00 | 71 | 1019.0 |
| 20260503001505 | 57 | 220 | 2.0 | 4.0 | 0.00 | 0.00 | 0.00 | 71 | 1019.0 |
| 20260503001404 | 57 | 221 | 2.0 | 4.0 | 0.00 | 0.00 | 0.00 | 70 | 1019.1 |
| 20260503001305 | 57 | 225 | 2.0 | 4.0 | 0.00 | 0.00 | 0.00 | 70 | 1019.0 |
| 20260503001205 | 57 | 232 | 2.0 | 4.0 | 0.00 | 0.00 | 0.00 | 70 | 1019.0 |
| 20260503001105 | 57 | 240 | 2.0 | 4.0 | 0.00 | 0.00 | 0.00 | 70 | 1019.1 |
| 20260503001004 | 57 | 241 | 2.0 | 4.0 | 0.00 | 0.00 | 0.00 | 70 | 1019.1 |
| 20260503000713 | 58 | 250 | 1.0 | 4.0 | 0.00 | 0.00 | 0.00 | 69 | 1019.1 |
| 20260503000604 | 58 | 253 | 1.0 | 3.0 | 0.00 | 0.00 | 0.00 | 69 | 1019.0 |
| 20260503000407 | 58 | 261 | 1.0 | 3.0 | 0.00 | 0.00 | 0.00 | 69 | 1019.0 |
| 20260503000305 | 58 | 261 | 1.0 | 3.0 | 0.00 | 0.00 | 0.00 | 69 | 1019.1 |
| 20260503000204 | 58 | 255 | 1.0 | 3.0 | 0.00 | 0.00 | 0.00 | 69 | 1019.1 |
| 20260502235904 | 58 | 258 | 1.0 | 3.0 | 0.00 | 0.00 | 0.00 | 69 | 1019.1 |
| 20260502235604 | 58 | 263 | 1.0 | 3.0 | 0.00 | 0.00 | 0.00 | 69 | 1019.1 |
| 20260502235505 | 58 | 263 | 1.0 | 4.0 | 0.00 | 0.00 | 0.00 | 69 | 1019.1 |
| 20260502235404 | 58 | 267 | 2.0 | 4.0 | 0.00 | 0.00 | 0.00 | 69 | 1019.0 |
| 20260502235305 | 58 | 270 | 1.0 | 4.0 | 0.00 | 0.00 | 0.00 | 69 | 1019.1 |
| 20260502235204 | 58 | 268 | 2.0 | 4.0 | 0.00 | 0.00 | 0.00 | 69 | 1019.1 |
| 20260502235104 | 58 | 261 | 2.0 | 4.0 | 0.00 | 0.00 | 0.00 | 69 | 1019.1 |
| 20260502235005 | 58 | 254 | 2.0 | 5.0 | 0.00 | 0.00 | 0.00 | 69 | 1019.1 |
| 20260502234905 | 58 | 247 | 2.0 | 5.0 | 0.00 | 0.00 | 0.00 | 69 | 1019.2 |
| 20260502234804 | 58 | 244 | 2.0 | 5.0 | 0.00 | 0.00 | 0.00 | 69 | 1019.1 |
| 20260502234711 | 58 | 241 | 3.0 | 5.0 | 0.00 | 0.00 | 0.00 | 69 | 1019.1 |
| 20260502234605 | 58 | 238 | 3.0 | 5.0 | 0.00 | 0.00 | 0.00 | 69 | 1019.1 |
| 20260502234404 | 58 | 234 | 3.0 | 5.0 | 0.00 | 0.00 | 0.00 | 69 | 1019.0 |
| 20260502234304 | 58 | 232 | 3.0 | 5.0 | 0.00 | 0.00 | 0.00 | 69 | 1019.1 |
| 20260502234005 | 58 | 233 | 3.0 | 5.0 | 0.00 | 0.00 | 0.00 | 69 | 1019.1 |
| 20260502233906 | 58 | 234 | 3.0 | 5.0 | 0.00 | 0.00 | 0.00 | 69 | 1019.2 |
| 20260502233804 | 58 | 234 | 3.0 | 4.0 | 0.00 | 0.00 | 0.00 | 68 | 1019.1 |
| 20260502233711 | 58 | 234 | 3.0 | 4.0 | 0.00 | 0.00 | 0.00 | 68 | 1019.2 |
| 20260502233605 | 58 | 232 | 3.0 | 5.0 | 0.00 | 0.00 | 0.00 | 69 | 1019.1 |
| 20260502233505 | 58 | 230 | 3.0 | 5.0 | 0.00 | 0.00 | 0.00 | 69 | 1019.2 |
| 20260502233405 | 58 | 228 | 3.0 | 5.0 | 0.00 | 0.00 | 0.00 | 68 | 1019.2 |
| 20260502233204 | 58 | 227 | 3.0 | 5.0 | 0.00 | 0.00 | 0.00 | 68 | 1019.2 |
| 20260502233004 | 58 | 223 | 3.0 | 5.0 | 0.00 | 0.00 | 0.00 | 68 | 1019.2 |
| 20260502232804 | 58 | 220 | 4.0 | 5.0 | 0.00 | 0.00 | 0.00 | 68 | 1019.2 |
| 20260502232711 | 58 | 220 | 4.0 | 5.0 | 0.00 | 0.00 | 0.00 | 68 | 1019.2 |
| 20260502232605 | 58 | 221 | 4.0 | 5.0 | 0.00 | 0.00 | 0.00 | 68 | 1019.3 |
| 20260502232504 | 58 | 221 | 4.0 | 5.0 | 0.00 | 0.00 | 0.00 | 68 | 1019.2 |
| 20260502232404 | 58 | 222 | 4.0 | 5.0 | 0.00 | 0.00 | 0.00 | 68 | 1019.3 |
| 20260502232305 | 58 | 222 | 4.0 | 5.0 | 0.00 | 0.00 | 0.00 | 68 | 1019.2 |
| 20260502232204 | 58 | 222 | 4.0 | 5.0 | 0.00 | 0.00 | 0.00 | 68 | 1019.2 |
| 20260502232105 | 58 | 223 | 4.0 | 5.0 | 0.00 | 0.00 | 0.00 | 68 | 1019.2 |
| 20260502232005 | 58 | 224 | 4.0 | 5.0 | 0.00 | 0.00 | 0.00 | 68 | 1019.3 |
| 20260502231804 | 58 | 225 | 4.0 | 5.0 | 0.00 | 0.00 | 0.00 | 68 | 1019.3 |
| 20260502231711 | 58 | 226 | 4.0 | 5.0 | 0.00 | 0.00 | 0.00 | 68 | 1019.3 |
| 20260502231604 | 58 | 228 | 4.0 | 5.0 | 0.00 | 0.00 | 0.00 | 68 | 1019.3 |
| 20260502231511 | 58 | 228 | 4.0 | 5.0 | 0.00 | 0.00 | 0.00 | 68 | 1019.2 |
| 20260502231405 | 58 | 228 | 4.0 | 5.0 | 0.00 | 0.00 | 0.00 | 69 | 1019.1 |
| 20260502231304 | 58 | 228 | 4.0 | 5.0 | 0.00 | 0.00 | 0.00 | 69 | 1019.2 |
| 20260502231204 | 58 | 229 | 4.0 | 5.0 | 0.00 | 0.00 | 0.00 | 69 | 1019.2 |
| 20260502231105 | 58 | 229 | 4.0 | 5.0 | 0.00 | 0.00 | 0.00 | 69 | 1019.1 |
| 20260502231004 | 58 | 228 | 3.0 | 5.0 | 0.00 | 0.00 | 0.00 | 69 | 1019.2 |
| 20260502230904 | 58 | 228 | 3.0 | 5.0 | 0.00 | 0.00 | 0.00 | 69 | 1019.2 |
| 20260502230804 | 58 | 229 | 3.0 | 5.0 | 0.00 | 0.00 | 0.00 | 69 | 1019.2 |
| 20260502230604 | 58 | 230 | 3.0 | 5.0 | 0.00 | 0.00 | 0.00 | 69 | 1019.3 |
| 20260502230504 | 58 | 231 | 3.0 | 5.0 | 0.00 | 0.00 | 0.00 | 69 | 1019.2 |
| 20260502230305 | 58 | 235 | 3.0 | 5.0 | 0.00 | 0.00 | 0.00 | 69 | 1019.1 |
| 20260502230205 | 58 | 239 | 3.0 | 5.0 | 0.00 | 0.00 | 0.00 | 69 | 1019.2 |
| 20260502230104 | 58 | 241 | 3.0 | 6.0 | 0.00 | 0.00 | 0.00 | 69 | 1019.2 |
| 20260502230005 | 58 | 243 | 3.0 | 6.0 | 0.00 | 0.00 | 0.00 | 69 | 1019.2 |
| 20260502225805 | 58 | 244 | 3.0 | 6.0 | 0.00 | 0.00 | 0.00 | 69 | 1019.2 |
| 20260502225605 | 58 | 240 | 3.0 | 6.0 | 0.00 | 0.00 | 0.00 | 68 | 1019.2 |
| 20260502225505 | 58 | 237 | 3.0 | 7.0 | 0.00 | 0.00 | 0.00 | 68 | 1019.2 |
| 20260502225405 | 58 | 235 | 4.0 | 7.0 | 0.00 | 0.00 | 0.00 | 68 | 1019.2 |
| 20260502225205 | 58 | 232 | 4.0 | 7.0 | 0.00 | 0.00 | 0.00 | 68 | 1019.2 |
| 20260502225005 | 58 | 232 | 4.0 | 7.0 | 0.00 | 0.00 | 0.00 | 68 | 1019.2 |
| 20260502224904 | 58 | 232 | 4.0 | 7.0 | 0.00 | 0.00 | 0.00 | 68 | 1019.1 |
| 20260502224804 | 58 | 233 | 4.0 | 7.0 | 0.00 | 0.00 | 0.00 | 68 | 1019.2 |
| 20260502224711 | 58 | 231 | 4.0 | 7.0 | 0.00 | 0.00 | 0.00 | 68 | 1019.1 |
| 20260502224604 | 58 | 229 | 4.0 | 7.0 | 0.00 | 0.00 | 0.00 | 68 | 1019.2 |
| 20260502224504 | 58 | 228 | 4.0 | 7.0 | 0.00 | 0.00 | 0.00 | 68 | 1019.2 |
| 20260502224404 | 58 | 228 | 4.0 | 7.0 | 0.00 | 0.00 | 0.00 | 68 | 1019.1 |
| 20260502224305 | 58 | 227 | 4.0 | 7.0 | 0.00 | 0.00 | 0.00 | 68 | 1019.1 |
| 20260502224104 | 58 | 227 | 4.0 | 8.0 | 0.00 | 0.00 | 0.00 | 68 | 1019.2 |
| 20260502224005 | 58 | 226 | 4.0 | 8.0 | 0.00 | 0.00 | 0.00 | 68 | 1019.1 |
| 20260502223905 | 58 | 225 | 4.0 | 8.0 | 0.00 | 0.00 | 0.00 | 68 | 1019.2 |
| 20260502223805 | 58 | 224 | 5.0 | 8.0 | 0.00 | 0.00 | 0.00 | 68 | 1019.1 |
| 20260502223711 | 58 | 225 | 4.0 | 8.0 | 0.00 | 0.00 | 0.00 | 68 | 1019.2 |
| 20260502223605 | 58 | 229 | 4.0 | 8.0 | 0.00 | 0.00 | 0.00 | 68 | 1019.3 |
| 20260502223505 | 58 | 232 | 4.0 | 10.0 | 0.00 | 0.00 | 0.00 | 68 | 1019.2 |
| 20260502223404 | 58 | 231 | 5.0 | 10.0 | 0.00 | 0.00 | 0.00 | 68 | 1019.2 |
| 20260502223304 | 58 | 231 | 5.0 | 10.0 | 0.00 | 0.00 | 0.00 | 68 | 1019.2 |
| 20260502223204 | 58 | 232 | 5.0 | 10.0 | 0.00 | 0.00 | 0.00 | 68 | 1019.1 |
| 20260502223105 | 58 | 231 | 5.0 | 10.0 | 0.00 | 0.00 | 0.00 | 68 | 1019.2 |
| 20260502223005 | 58 | 231 | 5.0 | 10.0 | 0.00 | 0.00 | 0.00 | 67 | 1019.2 |
| 20260502222905 | 58 | 232 | 5.0 | 10.0 | 0.00 | 0.00 | 0.00 | 67 | 1019.1 |
| 20260502222805 | 58 | 233 | 5.0 | 10.0 | 0.00 | 0.00 | 0.00 | 67 | 1019.1 |
| 20260502222604 | 59 | 233 | 5.0 | 10.0 | 0.00 | 0.00 | 0.00 | 67 | 1019.1 |
| 20260502222505 | 59 | 232 | 4.0 | 10.0 | 0.00 | 0.00 | 0.00 | 67 | 1019.2 |
| 20260502222412 | 59 | 235 | 4.0 | 9.0 | 0.00 | 0.00 | 0.00 | 67 | 1019.2 |
| 20260502222305 | 59 | 238 | 4.0 | 8.0 | 0.00 | 0.00 | 0.00 | 67 | 1019.2 |
| 20260502222204 | 59 | 239 | 4.0 | 7.0 | 0.00 | 0.00 | 0.00 | 67 | 1019.1 |
| 20260502222105 | 59 | 240 | 4.0 | 7.0 | 0.00 | 0.00 | 0.00 | 67 | 1019.1 |
| 20260502222005 | 59 | 241 | 4.0 | 7.0 | 0.00 | 0.00 | 0.00 | 67 | 1019.1 |
| 20260502221904 | 59 | 243 | 4.0 | 7.0 | 0.00 | 0.00 | 0.00 | 67 | 1019.1 |
| 20260502221605 | 59 | 247 | 3.0 | 7.0 | 0.00 | 0.00 | 0.00 | 67 | 1019.2 |
| 20260502221504 | 59 | 248 | 3.0 | 7.0 | 0.00 | 0.00 | 0.00 | 67 | 1019.1 |
| 20260502221204 | 59 | 263 | 2.0 | 7.0 | 0.00 | 0.00 | 0.00 | 66 | 1019.1 |
| 20260502221104 | 60 | 270 | 2.0 | 5.0 | 0.00 | 0.00 | 0.00 | 66 | 1019.1 |
| 20260502221004 | 60 | 276 | 1.0 | 4.0 | 0.00 | 0.00 | 0.00 | 65 | 1019.1 |
| 20260502220904 | 60 | 282 | 1.0 | 4.0 | 0.00 | 0.00 | 0.00 | 65 | 1019.1 |
| 20260502220804 | 60 | 273 | 2.0 | 5.0 | 0.00 | 0.00 | 0.00 | 65 | 1019.1 |
| 20260502220604 | 60 | 243 | 2.0 | 7.0 | 0.00 | 0.00 | 0.00 | 65 | 1019.1 |
| 20260502220505 | 60 | 236 | 3.0 | 7.0 | 0.00 | 0.00 | 0.00 | 65 | 1019.1 |
| 20260502220415 | 60 | 229 | 3.0 | 7.0 | 0.00 | 0.00 | 0.00 | 64 | 1019.2 |
| 20260502220305 | 60 | 224 | 3.0 | 7.0 | 0.00 | 0.00 | 0.00 | 64 | 1019.1 |
| 20260502220204 | 60 | 222 | 4.0 | 7.0 | 0.00 | 0.00 | 0.00 | 64 | 1019.1 |
| 20260502220105 | 60 | 222 | 4.0 | 7.0 | 0.00 | 0.00 | 0.00 | 64 | 1019.1 |
| 20260502220007 | 60 | 221 | 5.0 | 7.0 | 0.00 | 0.00 | 0.00 | 64 | 1019.0 |
| 20260502215905 | 60 | 219 | 5.0 | 7.0 | 0.00 | 0.00 | 0.00 | 64 | 1019.0 |
| 20260502215805 | 60 | 220 | 5.0 | 7.0 | 0.00 | 0.00 | 0.00 | 64 | 1019.1 |
| 20260502215705 | 60 | 222 | 5.0 | 7.0 | 0.00 | 0.00 | 0.00 | 64 | 1019.1 |
| 20260502215605 | 60 | 224 | 5.0 | 7.0 | 0.00 | 0.00 | 0.00 | 64 | 1019.1 |
| 20260502215411 | 60 | 227 | 5.0 | 7.0 | 0.00 | 0.00 | 0.00 | 64 | 1019.1 |
| 20260502215305 | 60 | 229 | 5.0 | 7.0 | 0.00 | 0.00 | 0.00 | 64 | 1019.0 |
| 20260502215104 | 60 | 234 | 4.0 | 7.0 | 0.00 | 0.00 | 0.00 | 64 | 1019.1 |
| 20260502215005 | 60 | 238 | 4.0 | 7.0 | 0.00 | 0.00 | 0.00 | 64 | 1019.2 |
| 20260502214904 | 60 | 243 | 4.0 | 7.0 | 0.00 | 0.00 | 0.00 | 64 | 1019.3 |
| 20260502214804 | 60 | 246 | 3.0 | 6.0 | 0.00 | 0.00 | 0.00 | 64 | 1019.2 |
| 20260502214705 | 60 | 248 | 3.0 | 6.0 | 0.00 | 0.00 | 0.00 | 64 | 1019.3 |
| 20260502214605 | 60 | 249 | 3.0 | 5.0 | 0.00 | 0.00 | 0.00 | 64 | 1019.1 |
| 20260502214505 | 60 | 250 | 3.0 | 5.0 | 0.00 | 0.00 | 0.00 | 63 | 1019.2 |
| 20260502214305 | 60 | 253 | 3.0 | 5.0 | 0.00 | 0.00 | 0.00 | 63 | 1019.1 |
| 20260502214105 | 61 | 255 | 2.0 | 5.0 | 0.00 | 0.00 | 0.00 | 63 | 1019.1 |
| 20260502214005 | 61 | 256 | 2.0 | 5.0 | 0.00 | 0.00 | 0.00 | 63 | 1019.1 |
| 20260502213904 | 61 | 256 | 2.0 | 5.0 | 0.00 | 0.00 | 0.00 | 63 | 1019.1 |
| 20260502213805 | 61 | 256 | 2.0 | 5.0 | 0.00 | 0.00 | 0.00 | 63 | 1019.2 |
| 20260502213704 | 61 | 258 | 2.0 | 4.0 | 0.00 | 0.00 | 0.00 | 63 | 1019.2 |
| 20260502213605 | 60 | 259 | 2.0 | 4.0 | 0.00 | 0.00 | 0.00 | 63 | 1019.2 |
| 20260502213505 | 61 | 262 | 2.0 | 4.0 | 0.00 | 0.00 | 0.00 | 63 | 1019.2 |
| 20260502213411 | 60 | 263 | 1.0 | 4.0 | 0.00 | 0.00 | 0.00 | 63 | 1019.1 |
| 20260502213304 | 61 | 268 | 1.0 | 3.0 | 0.00 | 0.00 | 0.00 | 64 | 1019.2 |
| 20260502213204 | 61 | 270 | 1.0 | 3.0 | 0.00 | 0.00 | 0.00 | 64 | 1019.1 |
| 20260502213105 | 61 | 273 | 1.0 | 3.0 | 0.00 | 0.00 | 0.00 | 64 | 1019.1 |
| 20260502213005 | 61 | 275 | 1.0 | 3.0 | 0.00 | 0.00 | 0.00 | 64 | 1019.2 |
| 20260502212905 | 61 | 282 | 1.0 | 3.0 | 0.00 | 0.00 | 0.00 | 64 | 1019.2 |
| 20260502212804 | 61 | 288 | 1.0 | 3.0 | 0.00 | 0.00 | 0.00 | 64 | 1019.2 |
| 20260502212705 | 61 | 293 | 1.0 | 3.0 | 0.00 | 0.00 | 0.00 | 64 | 1019.1 |
| 20260502212604 | 61 | 294 | 1.0 | 3.0 | 0.00 | 0.00 | 0.00 | 64 | 1019.1 |
| 20260502212504 | 61 | 295 | 1.0 | 3.0 | 0.00 | 0.00 | 0.00 | 64 | 1019.0 |
| 20260502212305 | 61 | 294 | 1.0 | 3.0 | 0.00 | 0.00 | 0.00 | 63 | 1019.1 |
| 20260502212204 | 61 | 293 | 1.0 | 3.0 | 0.00 | 0.00 | 0.00 | 63 | 1019.1 |
| 20260502212104 | 61 | 292 | 1.0 | 3.0 | 0.00 | 0.00 | 0.00 | 63 | 1019.1 |
| 20260502212005 | 61 | 292 | 1.0 | 3.0 | 0.00 | 0.00 | 0.00 | 63 | 1019.1 |
| 20260502211905 | 61 | 292 | 1.0 | 3.0 | 0.00 | 0.00 | 0.00 | 63 | 1019.1 |
| 20260502211804 | 61 | 293 | 1.0 | 3.0 | 0.00 | 0.00 | 0.00 | 63 | 1019.2 |
| 20260502211705 | 61 | 296 | 2.0 | 4.0 | 0.00 | 0.00 | 0.00 | 63 | 1019.1 |
| 20260502211605 | 61 | 299 | 2.0 | 4.0 | 0.00 | 0.00 | 0.00 | 63 | 1019.1 |
| 20260502211505 | 61 | 304 | 2.0 | 4.0 | 0.00 | 0.00 | 0.00 | 63 | 1019.1 |
| 20260502211412 | 61 | 304 | 2.0 | 4.0 | 0.00 | 0.00 | 0.00 | 63 | 1019.1 |
| 20260502211306 | 61 | 306 | 2.0 | 4.0 | 0.00 | 0.00 | 0.00 | 63 | 1019.1 |
| 20260502211204 | 61 | 310 | 2.0 | 4.0 | 0.00 | 0.00 | 0.00 | 63 | 1019.1 |
| 20260502211106 | 61 | 312 | 2.0 | 4.0 | 0.00 | 0.00 | 0.00 | 63 | 1019.1 |
| 20260502211004 | 61 | 310 | 2.0 | 4.0 | 0.00 | 0.00 | 0.00 | 63 | 1019.1 |
| 20260502210904 | 61 | 305 | 3.0 | 5.0 | 0.00 | 0.00 | 0.00 | 63 | 1019.1 |
| 20260502210805 | 61 | 302 | 3.0 | 5.0 | 0.00 | 0.00 | 0.00 | 63 | 1019.1 |
| 20260502210704 | 61 | 297 | 3.0 | 5.0 | 0.00 | 0.00 | 0.00 | 63 | 1019.1 |
| 20260502210604 | 61 | 293 | 3.0 | 5.0 | 0.00 | 0.00 | 0.00 | 63 | 1019.2 |
| 20260502210504 | 61 | 283 | 3.0 | 5.0 | 0.00 | 0.00 | 0.00 | 63 | 1019.2 |
| 20260502210411 | 61 | 277 | 3.0 | 5.0 | 0.00 | 0.00 | 0.00 | 63 | 1019.1 |
| 20260502210305 | 61 | 270 | 3.0 | 5.0 | 0.00 | 0.00 | 0.00 | 63 | 1019.1 |
| 20260502210204 | 61 | 261 | 3.0 | 6.0 | 0.00 | 0.00 | 0.00 | 62 | 1019.1 |
| 20260502210105 | 61 | 252 | 3.0 | 6.0 | 0.00 | 0.00 | 0.00 | 62 | 1019.1 |
| 20260502210004 | 61 | 246 | 3.0 | 6.0 | 0.00 | 0.00 | 0.00 | 62 | 1019.2 |
| 20260502205904 | 61 | 242 | 3.0 | 6.0 | 0.00 | 0.00 | 0.00 | 62 | 1019.0 |
| 20260502205805 | 61 | 237 | 3.0 | 6.0 | 0.00 | 0.00 | 0.00 | 62 | 1019.1 |
| 20260502205505 | 62 | 224 | 3.0 | 6.0 | 0.00 | 0.00 | 0.00 | 61 | 1019.2 |
| 20260502205411 | 62 | 222 | 3.0 | 6.0 | 0.00 | 0.00 | 0.00 | 61 | 1019.1 |
| 20260502205305 | 62 | 218 | 4.0 | 6.0 | 0.00 | 0.00 | 0.00 | 61 | 1019.2 |
| 20260502205204 | 62 | 216 | 4.0 | 6.0 | 0.00 | 0.00 | 0.00 | 61 | 1019.1 |
| 20260502205104 | 62 | 211 | 4.0 | 6.0 | 0.00 | 0.00 | 0.00 | 60 | 1019.1 |
| 20260502205005 | 62 | 208 | 4.0 | 8.0 | 0.00 | 0.00 | 0.00 | 60 | 1019.1 |
| 20260502204804 | 62 | 202 | 4.0 | 8.0 | 0.00 | 0.00 | 0.00 | 60 | 1019.2 |
| 20260502204705 | 62 | 201 | 4.0 | 8.0 | 0.00 | 0.00 | 0.00 | 60 | 1019.1 |
| 20260502204605 | 62 | 199 | 5.0 | 8.0 | 0.00 | 0.00 | 0.00 | 59 | 1019.2 |
| 20260502204505 | 62 | 197 | 5.0 | 8.0 | 0.00 | 0.00 | 0.00 | 59 | 1019.1 |
| 20260502204411 | 62 | 195 | 5.0 | 8.0 | 0.00 | 0.00 | 0.00 | 59 | 1019.1 |
| 20260502204204 | 62 | 194 | 5.0 | 8.0 | 0.00 | 0.00 | 0.00 | 59 | 1019.1 |
| 20260502204105 | 62 | 194 | 5.0 | 8.0 | 0.00 | 0.00 | 0.00 | 60 | 1019.2 |
| 20260502204004 | 62 | 195 | 5.0 | 8.0 | 0.00 | 0.00 | 0.00 | 60 | 1019.1 |
| 20260502203904 | 62 | 196 | 5.0 | 8.0 | 0.00 | 0.00 | 0.00 | 60 | 1019.1 |
| 20260502203804 | 62 | 197 | 6.0 | 8.0 | 0.00 | 0.00 | 0.00 | 60 | 1019.1 |
| 20260502203704 | 62 | 198 | 6.0 | 8.0 | 0.00 | 0.00 | 0.00 | 60 | 1019.2 |
| 20260502203605 | 62 | 199 | 6.0 | 8.0 | 0.00 | 0.00 | 0.00 | 60 | 1019.2 |
| 20260502203412 | 62 | 201 | 6.0 | 8.0 | 0.00 | 0.00 | 0.00 | 60 | 1019.0 |
| 20260502203304 | 62 | 203 | 6.0 | 8.0 | 0.00 | 0.00 | 0.00 | 60 | 1019.1 |
| 20260502203204 | 62 | 204 | 6.0 | 8.0 | 0.00 | 0.00 | 0.00 | 60 | 1019.2 |
| 20260502203104 | 62 | 206 | 5.0 | 8.0 | 0.00 | 0.00 | 0.00 | 60 | 1019.2 |
| 20260502202904 | 62 | 208 | 5.0 | 8.0 | 0.00 | 0.00 | 0.00 | 61 | 1019.1 |
| 20260502202806 | 62 | 209 | 5.0 | 8.0 | 0.00 | 0.00 | 0.00 | 61 | 1019.1 |
| 20260502202704 | 62 | 210 | 4.0 | 8.0 | 0.00 | 0.00 | 0.00 | 61 | 1019.1 |
| 20260502202605 | 62 | 210 | 4.0 | 8.0 | 0.00 | 0.00 | 0.00 | 61 | 1019.1 |
| 20260502202504 | 62 | 211 | 4.0 | 8.0 | 0.00 | 0.00 | 0.00 | 61 | 1019.1 |
| 20260502202412 | 62 | 211 | 4.0 | 8.0 | 0.00 | 0.00 | 0.00 | 61 | 1019.1 |
| 20260502202305 | 62 | 210 | 4.0 | 8.0 | 0.00 | 0.00 | 0.00 | 62 | 1019.1 |
| 20260502202205 | 62 | 209 | 4.0 | 8.0 | 0.00 | 0.00 | 0.00 | 62 | 1019.1 |
| 20260502202106 | 62 | 207 | 5.0 | 8.0 | 0.00 | 0.00 | 0.00 | 61 | 1019.1 |
| 20260502202004 | 62 | 205 | 5.0 | 8.0 | 0.00 | 0.00 | 0.00 | 61 | 1019.2 |
| 20260502201905 | 62 | 204 | 5.0 | 8.0 | 0.00 | 0.00 | 0.00 | 61 | 1019.1 |
| 20260502201805 | 62 | 203 | 5.0 | 8.0 | 0.00 | 0.00 | 0.00 | 61 | 1019.2 |
| 20260502201704 | 62 | 201 | 5.0 | 8.0 | 0.00 | 0.00 | 0.00 | 60 | 1019.2 |
| 20260502201605 | 62 | 199 | 5.0 | 8.0 | 0.00 | 0.00 | 0.00 | 60 | 1019.1 |
| 20260502201411 | 62 | 196 | 5.0 | 8.0 | 0.00 | 0.00 | 0.00 | 60 | 1019.1 |
| 20260502201305 | 62 | 194 | 5.0 | 8.0 | 0.00 | 0.00 | 0.00 | 60 | 1019.2 |
| 20260502201204 | 62 | 192 | 5.0 | 8.0 | 0.00 | 0.00 | 0.00 | 60 | 1019.0 |
| 20260502201104 | 62 | 192 | 5.0 | 8.0 | 0.00 | 0.00 | 0.00 | 60 | 1019.0 |
| 20260502201005 | 62 | 192 | 5.0 | 8.0 | 0.00 | 0.00 | 0.00 | 60 | 1019.2 |
| 20260502200804 | 62 | 195 | 5.0 | 8.0 | 0.00 | 0.00 | 0.00 | 60 | 1019.0 |
| 20260502200705 | 62 | 196 | 5.0 | 8.0 | 0.00 | 0.00 | 0.00 | 60 | 1019.0 |
| 20260502200605 | 62 | 199 | 5.0 | 8.0 | 0.00 | 0.00 | 0.00 | 60 | 1019.0 |
| 20260502200505 | 62 | 203 | 5.0 | 8.0 | 0.00 | 0.00 | 0.00 | 60 | 1018.9 |
| 20260502200304 | 63 | 208 | 5.0 | 8.0 | 0.00 | 0.00 | 0.00 | 59 | 1018.9 |
| 20260502200106 | 63 | 210 | 5.0 | 8.0 | 0.00 | 0.00 | 0.00 | 59 | 1018.9 |
| 20260502200005 | 63 | 211 | 5.0 | 8.0 | 0.00 | 0.00 | 0.00 | 59 | 1018.9 |
| 20260502195905 | 63 | 211 | 5.0 | 8.0 | 0.00 | 0.00 | 0.00 | 59 | 1018.9 |
| 20260502195805 | 63 | 210 | 5.0 | 9.0 | 0.00 | 0.00 | 0.00 | 59 | 1018.9 |
| 20260502195415 | 63 | 208 | 5.0 | 9.0 | 0.00 | 0.00 | 0.00 | 59 | 1018.8 |
| 20260502195305 | 63 | 207 | 5.0 | 9.0 | 0.00 | 0.00 | 0.00 | 59 | 1018.9 |
| 20260502195204 | 63 | 207 | 5.0 | 9.0 | 0.00 | 0.00 | 0.00 | 59 | 1018.8 |
| 20260502194904 | 63 | 207 | 6.0 | 9.0 | 0.00 | 0.00 | 0.00 | 59 | 1018.9 |
| 20260502194805 | 63 | 207 | 5.0 | 8.0 | 0.00 | 0.00 | 0.00 | 59 | 1018.8 |
| 20260502194711 | 63 | 207 | 5.0 | 8.0 | 0.00 | 0.00 | 0.00 | 59 | 1018.9 |
| 20260502194605 | 63 | 208 | 5.0 | 8.0 | 0.00 | 0.00 | 0.00 | 59 | 1018.8 |
| 20260502194505 | 63 | 208 | 5.0 | 8.0 | 0.00 | 0.00 | 0.00 | 59 | 1018.9 |
| 20260502194405 | 63 | 208 | 5.0 | 8.0 | 0.00 | 0.00 | 0.00 | 59 | 1018.8 |
| 20260502194304 | 63 | 208 | 5.0 | 8.0 | 0.00 | 0.00 | 0.00 | 59 | 1018.8 |
| 20260502194205 | 63 | 208 | 5.0 | 8.0 | 0.00 | 0.00 | 0.00 | 59 | 1018.8 |
| 20260502194104 | 63 | 207 | 5.0 | 8.0 | 0.00 | 0.00 | 0.00 | 59 | 1018.9 |
| 20260502194005 | 63 | 207 | 4.0 | 7.0 | 0.00 | 0.00 | 0.00 | 59 | 1018.8 |
| 20260502193905 | 63 | 206 | 4.0 | 7.0 | 0.00 | 0.00 | 0.00 | 59 | 1018.8 |
| 20260502193710 | 63 | 205 | 5.0 | 7.0 | 0.00 | 0.00 | 0.00 | 59 | 1018.8 |
| 20260502193505 | 63 | 204 | 5.0 | 7.0 | 0.00 | 0.00 | 0.00 | 59 | 1018.7 |
| 20260502193405 | 63 | 204 | 5.0 | 7.0 | 0.00 | 0.00 | 0.00 | 59 | 1018.8 |
| 20260502193305 | 63 | 204 | 5.0 | 7.0 | 0.00 | 0.00 | 0.00 | 59 | 1018.7 |
| 20260502193205 | 63 | 205 | 5.0 | 7.0 | 0.00 | 0.00 | 0.00 | 59 | 1018.7 |
| 20260502193105 | 63 | 205 | 5.0 | 7.0 | 0.00 | 0.00 | 0.00 | 59 | 1018.7 |
| 20260502193005 | 63 | 206 | 5.0 | 7.0 | 0.00 | 0.00 | 0.00 | 59 | 1018.8 |
| 20260502192904 | 63 | 206 | 5.0 | 7.0 | 0.00 | 0.00 | 0.00 | 59 | 1018.8 |
| 20260502192805 | 63 | 207 | 5.0 | 7.0 | 0.00 | 0.00 | 0.00 | 59 | 1018.7 |
| 20260502192604 | 64 | 210 | 5.0 | 7.0 | 0.00 | 0.00 | 0.00 | 59 | 1018.7 |
| 20260502192505 | 64 | 210 | 4.0 | 7.0 | 0.00 | 0.00 | 0.00 | 59 | 1018.7 |
| 20260502192404 | 64 | 211 | 4.0 | 7.0 | 0.00 | 0.00 | 0.00 | 59 | 1018.6 |
| 20260502192305 | 64 | 212 | 4.0 | 7.0 | 0.00 | 0.00 | 0.00 | 59 | 1018.6 |
| 20260502192104 | 64 | 214 | 4.0 | 7.0 | 0.00 | 0.00 | 0.00 | 59 | 1018.6 |
| 20260502192005 | 64 | 215 | 4.0 | 7.0 | 0.00 | 0.00 | 0.00 | 59 | 1018.7 |
| 20260502191905 | 64 | 215 | 4.0 | 7.0 | 0.00 | 0.00 | 0.00 | 59 | 1018.6 |
| 20260502191804 | 64 | 215 | 4.0 | 7.0 | 0.00 | 0.00 | 0.00 | 58 | 1018.7 |
| 20260502191714 | 64 | 215 | 4.0 | 7.0 | 0.00 | 0.00 | 0.00 | 59 | 1018.5 |
| 20260502191604 | 64 | 215 | 4.0 | 7.0 | 0.00 | 0.00 | 0.00 | 58 | 1018.6 |
| 20260502191505 | 64 | 216 | 4.0 | 7.0 | 0.00 | 0.00 | 0.00 | 58 | 1018.7 |
| 20260502191405 | 64 | 218 | 4.0 | 7.0 | 0.00 | 0.00 | 0.00 | 59 | 1018.6 |
| 20260502191205 | 64 | 218 | 4.0 | 6.0 | 0.00 | 0.00 | 0.00 | 59 | 1018.6 |
| 20260502191104 | 64 | 217 | 3.0 | 6.0 | 0.00 | 0.00 | 0.00 | 58 | 1018.5 |
| 20260502190904 | 64 | 217 | 3.0 | 6.0 | 0.00 | 0.00 | 0.00 | 58 | 1018.5 |
| 20260502190804 | 64 | 217 | 3.0 | 6.0 | 0.00 | 0.00 | 0.00 | 58 | 1018.5 |
| 20260502190704 | 64 | 218 | 2.0 | 6.0 | 0.00 | 0.00 | 0.00 | 59 | 1018.6 |
| 20260502190404 | 64 | 218 | 1.0 | 6.0 | 0.00 | 0.00 | 0.00 | 59 | 1018.5 |
| 20260502190306 | 65 | 217 | 1.0 | 5.0 | 0.00 | 0.00 | 0.00 | 59 | 1018.5 |
| 20260502190205 | 65 | 213 | 1.0 | 4.0 | 0.00 | 0.00 | 0.00 | 59 | 1018.5 |
| 20260502190105 | 65 | 211 | 1.0 | 3.0 | 0.00 | 0.00 | 0.00 | 59 | 1018.5 |
| 20260502185804 | 65 | 212 | 2.0 | 4.0 | 0.00 | 0.00 | 0.00 | 58 | 1018.5 |
| 20260502185704 | 65 | 211 | 2.0 | 4.0 | 0.00 | 0.00 | 0.00 | 58 | 1018.5 |
| 20260502185605 | 65 | 210 | 2.0 | 4.0 | 0.00 | 0.00 | 0.00 | 58 | 1018.4 |
| 20260502185405 | 65 | 206 | 2.0 | 4.0 | 0.00 | 0.00 | 0.00 | 58 | 1018.5 |
| 20260502185312 | 65 | 207 | 1.0 | 4.0 | 0.00 | 0.00 | 0.00 | 58 | 1018.5 |
| 20260502185205 | 65 | 208 | 1.0 | 4.0 | 0.00 | 0.00 | 0.00 | 58 | 1018.4 |
| 20260502185005 | 65 | 208 | 1.0 | 4.0 | 0.00 | 0.00 | 0.00 | 57 | 1018.4 |
| 20260502184805 | 66 | 201 | 1.0 | 3.0 | 0.00 | 0.00 | 0.00 | 57 | 1018.4 |
| 20260502184705 | 66 | 199 | 1.0 | 3.0 | 0.00 | 0.00 | 0.00 | 56 | 1018.4 |
| 20260502184606 | 66 | 196 | 1.0 | 3.0 | 0.00 | 0.00 | 0.00 | 57 | 1018.3 |
| 20260502184504 | 66 | 192 | 1.0 | 3.0 | 0.00 | 0.00 | 0.00 | 57 | 1018.3 |
| 20260502184406 | 66 | 191 | 1.0 | 4.0 | 0.00 | 0.00 | 0.00 | 56 | 1018.3 |
| 20260502184314 | 66 | 191 | 1.0 | 4.0 | 0.00 | 0.00 | 0.00 | 56 | 1018.3 |
| 20260502184204 | 66 | 194 | 1.0 | 4.0 | 0.00 | 0.00 | 0.00 | 56 | 1018.2 |
| 20260502184105 | 66 | 199 | 2.0 | 5.0 | 0.00 | 0.00 | 0.00 | 56 | 1018.3 |
| 20260502183906 | 66 | 202 | 2.0 | 5.0 | 0.00 | 0.00 | 0.00 | 56 | 1018.2 |
| 20260502183610 | 66 | 207 | 3.0 | 5.0 | 0.00 | 0.00 | 0.00 | 56 | 1018.2 |
| 20260502183505 | 66 | 209 | 3.0 | 5.0 | 0.00 | 0.00 | 0.00 | 56 | 1018.1 |
| 20260502183405 | 66 | 211 | 3.0 | 5.0 | 0.00 | 0.00 | 0.00 | 56 | 1018.2 |
| 20260502183304 | 66 | 211 | 3.0 | 5.0 | 0.00 | 0.00 | 0.00 | 56 | 1018.2 |
| 20260502183205 | 66 | 211 | 4.0 | 5.0 | 0.00 | 0.00 | 0.00 | 56 | 1018.2 |
| 20260502183105 | 66 | 210 | 4.0 | 5.0 | 0.00 | 0.00 | 0.00 | 55 | 1018.3 |
| 20260502183005 | 66 | 210 | 4.0 | 5.0 | 0.00 | 0.00 | 0.00 | 55 | 1018.2 |
| 20260502182905 | 66 | 210 | 4.0 | 5.0 | 0.00 | 0.00 | 0.00 | 55 | 1018.2 |
| 20260502182804 | 66 | 210 | 4.0 | 5.0 | 0.00 | 0.00 | 0.00 | 55 | 1018.3 |
| 20260502182505 | 67 | 212 | 4.0 | 5.0 | 0.00 | 0.00 | 0.00 | 54 | 1018.1 |
| 20260502182404 | 67 | 211 | 3.0 | 5.0 | 0.00 | 0.00 | 0.00 | 54 | 1018.1 |
| 20260502182305 | 67 | 212 | 3.0 | 5.0 | 0.00 | 0.00 | 0.00 | 55 | 1018.1 |
| 20260502182105 | 67 | 212 | 3.0 | 5.0 | 0.00 | 0.00 | 0.00 | 55 | 1018.2 |
| 20260502181905 | 67 | 214 | 3.0 | 5.0 | 0.00 | 0.00 | 0.00 | 55 | 1018.1 |
| 20260502181705 | 67 | 215 | 3.0 | 5.0 | 0.00 | 0.00 | 0.00 | 55 | 1018.1 |
| 20260502181505 | 67 | 211 | 3.0 | 5.0 | 0.00 | 0.00 | 0.00 | 54 | 1018.1 |
| 20260502181404 | 67 | 213 | 3.0 | 5.0 | 0.00 | 0.00 | 0.00 | 54 | 1018.1 |
| 20260502181305 | 67 | 214 | 3.0 | 5.0 | 0.00 | 0.00 | 0.00 | 54 | 1018.1 |
| 20260502181204 | 67 | 214 | 3.0 | 5.0 | 0.00 | 0.00 | 0.00 | 54 | 1018.1 |
| 20260502181105 | 67 | 214 | 3.0 | 5.0 | 0.00 | 0.00 | 0.00 | 55 | 1018.0 |
| 20260502181005 | 67 | 213 | 3.0 | 6.0 | 0.00 | 0.00 | 0.00 | 54 | 1018.0 |
| 20260502180910 | 67 | 212 | 3.0 | 6.0 | 0.00 | 0.00 | 0.00 | 54 | 1018.0 |
| 20260502180804 | 67 | 211 | 4.0 | 6.0 | 0.00 | 0.00 | 0.00 | 53 | 1018.0 |
| 20260502180704 | 67 | 210 | 4.0 | 6.0 | 0.00 | 0.00 | 0.00 | 53 | 1018.1 |
| 20260502180504 | 67 | 211 | 4.0 | 6.0 | 0.00 | 0.00 | 0.00 | 52 | 1018.0 |
| 20260502180304 | 67 | 208 | 4.0 | 6.0 | 0.00 | 0.00 | 0.00 | 51 | 1017.9 |
| 20260502180205 | 68 | 208 | 3.0 | 6.0 | 0.00 | 0.00 | 0.00 | 51 | 1018.0 |
| 20260502180105 | 68 | 209 | 3.0 | 6.0 | 0.00 | 0.00 | 0.00 | 52 | 1018.0 |
| 20260502170304 | 71 | 105 | 1.0 | 4.0 | 0.00 | 0.00 | 0.00 | 44 | 1017.6 |
| 20260502170110 | 71 | 92 | 0.0 | 3.0 | 0.00 | 0.00 | 0.00 | 45 | 1017.7 |
| 20260502164305 | 71 | 80 | 4.0 | 9.0 | 0.00 | 0.00 | 0.00 | 43 | 1017.7 |
| 20260502164204 | 71 | 79 | 4.0 | 9.0 | 0.00 | 0.00 | 0.00 | 43 | 1017.7 |
| 20260502164005 | 72 | 80 | 4.0 | 9.0 | 0.00 | 0.00 | 0.00 | 43 | 1017.7 |
| 20260502163904 | 72 | 82 | 4.0 | 9.0 | 0.00 | 0.00 | 0.00 | 43 | 1017.7 |
| 20260502163805 | 72 | 83 | 4.0 | 9.0 | 0.00 | 0.00 | 0.00 | 43 | 1017.7 |
| 20260502163705 | 72 | 83 | 4.0 | 9.0 | 0.00 | 0.00 | 0.00 | 43 | 1017.6 |
| 20260502163605 | 72 | 83 | 4.0 | 9.0 | 0.00 | 0.00 | 0.00 | 43 | 1017.6 |
| 20260502163505 | 72 | 80 | 4.0 | 8.0 | 0.00 | 0.00 | 0.00 | 43 | 1017.7 |
| 20260502163414 | 72 | 81 | 4.0 | 8.0 | 0.00 | 0.00 | 0.00 | 44 | 1017.7 |
| 20260502163305 | 72 | 82 | 4.0 | 8.0 | 0.00 | 0.00 | 0.00 | 43 | 1017.7 |
| 20260502163204 | 72 | 84 | 4.0 | 8.0 | 0.00 | 0.00 | 0.00 | 43 | 1017.7 |
| 20260502163104 | 72 | 85 | 4.0 | 8.0 | 0.00 | 0.00 | 0.00 | 43 | 1017.7 |
| 20260502163005 | 72 | 85 | 4.0 | 8.0 | 0.00 | 0.00 | 0.00 | 43 | 1017.7 |
| 20260502162904 | 72 | 85 | 4.0 | 8.0 | 0.00 | 0.00 | 0.00 | 43 | 1017.8 |
| 20260502162710 | 72 | 83 | 4.0 | 8.0 | 0.00 | 0.00 | 0.00 | 42 | 1017.8 |
| 20260502162604 | 72 | 88 | 3.0 | 8.0 | 0.00 | 0.00 | 0.00 | 42 | 1017.8 |
| 20260502162505 | 72 | 88 | 4.0 | 8.0 | 0.00 | 0.00 | 0.00 | 42 | 1017.8 |
| 20260502162404 | 72 | 87 | 3.0 | 7.0 | 0.00 | 0.00 | 0.00 | 42 | 1017.8 |
| 20260502162305 | 73 | 86 | 3.0 | 7.0 | 0.00 | 0.00 | 0.00 | 42 | 1017.8 |
| 20260502162004 | 73 | 92 | 3.0 | 7.0 | 0.00 | 0.00 | 0.00 | 43 | 1017.9 |
| 20260502161906 | 72 | 90 | 3.0 | 7.0 | 0.00 | 0.00 | 0.00 | 42 | 1017.8 |
| 20260502161806 | 72 | 91 | 3.0 | 7.0 | 0.00 | 0.00 | 0.00 | 42 | 1017.8 |
| 20260502161714 | 72 | 92 | 3.0 | 7.0 | 0.00 | 0.00 | 0.00 | 42 | 1017.9 |
| 20260502161605 | 73 | 91 | 3.0 | 7.0 | 0.00 | 0.00 | 0.00 | 41 | 1017.9 |
| 20260502161504 | 73 | 92 | 3.0 | 7.0 | 0.00 | 0.00 | 0.00 | 41 | 1017.8 |
| 20260502161405 | 73 | 91 | 4.0 | 7.0 | 0.00 | 0.00 | 0.00 | 41 | 1017.9 |
| 20260502161305 | 73 | 89 | 4.0 | 7.0 | 0.00 | 0.00 | 0.00 | 41 | 1017.9 |
| 20260502161204 | 73 | 89 | 4.0 | 7.0 | 0.00 | 0.00 | 0.00 | 41 | 1017.9 |
| 20260502161104 | 72 | 86 | 4.0 | 7.0 | 0.00 | 0.00 | 0.00 | 42 | 1017.9 |
| 20260502160904 | 72 | 87 | 4.0 | 9.0 | 0.00 | 0.00 | 0.00 | 43 | 1018.0 |
| 20260502160705 | 72 | 84 | 5.0 | 9.0 | 0.00 | 0.00 | 0.00 | 42 | 1018.0 |
| 20260502160604 | 72 | 83 | 5.0 | 9.0 | 0.00 | 0.00 | 0.00 | 42 | 1018.0 |
| 20260502160504 | 72 | 83 | 4.0 | 9.0 | 0.00 | 0.00 | 0.00 | 41 | 1017.9 |
| 20260502160404 | 72 | 80 | 4.0 | 9.0 | 0.00 | 0.00 | 0.00 | 41 | 1017.9 |
| 20260502160204 | 73 | 79 | 4.0 | 9.0 | 0.00 | 0.00 | 0.00 | 41 | 1017.9 |
| 20260502160106 | 73 | 79 | 4.0 | 9.0 | 0.00 | 0.00 | 0.00 | 41 | 1018.0 |
| 20260502151904 | 72 | 79 | 6.0 | 12.0 | 0.00 | 0.00 | 0.00 | 41 | 1018.3 |
| 20260502151705 | 72 | 77 | 6.0 | 12.0 | 0.00 | 0.00 | 0.00 | 42 | 1018.4 |
| 20260502151605 | 72 | 75 | 5.0 | 12.0 | 0.00 | 0.00 | 0.00 | 41 | 1018.4 |
| 20260502151505 | 72 | 76 | 5.0 | 12.0 | 0.00 | 0.00 | 0.00 | 41 | 1018.4 |
| 20260502151404 | 72 | 82 | 5.0 | 12.0 | 0.00 | 0.00 | 0.00 | 41 | 1018.4 |
| 20260502151304 | 73 | 85 | 5.0 | 12.0 | 0.00 | 0.00 | 0.00 | 40 | 1018.4 |
| 20260502151213 | 73 | 89 | 4.0 | 11.0 | 0.00 | 0.00 | 0.00 | 40 | 1018.3 |
| 20260502151006 | 73 | 87 | 4.0 | 11.0 | 0.00 | 0.00 | 0.00 | 41 | 1018.4 |
| 20260502150904 | 73 | 84 | 4.0 | 11.0 | 0.00 | 0.00 | 0.00 | 40 | 1018.4 |
| 20260502150804 | 73 | 76 | 4.0 | 11.0 | 0.00 | 0.00 | 0.00 | 41 | 1018.5 |
| 20260502150704 | 72 | 74 | 5.0 | 11.0 | 0.00 | 0.00 | 0.00 | 41 | 1018.5 |
| 20260502150605 | 72 | 77 | 5.0 | 11.0 | 0.00 | 0.00 | 0.00 | 41 | 1018.4 |
| 20260502150511 | 72 | 80 | 5.0 | 11.0 | 0.00 | 0.00 | 0.00 | 40 | 1018.4 |
| 20260502150304 | 72 | 81 | 6.0 | 12.0 | 0.00 | 0.00 | 0.00 | 41 | 1018.5 |
| 20260502150105 | 72 | 81 | 7.0 | 13.0 | 0.00 | 0.00 | 0.00 | 42 | 1018.4 |
| 20260502140104 | 71 | 73 | 8.0 | 15.0 | 0.00 | 0.00 | 0.00 | 42 | 1019.2 |
| 20260502130604 | 70 | 85 | 9.0 | 14.0 | 0.00 | 0.00 | 0.00 | 41 | 1020.2 |
| 20260502130504 | 70 | 83 | 9.0 | 14.0 | 0.00 | 0.00 | 0.00 | 41 | 1020.3 |
| 20260502130405 | 70 | 81 | 9.0 | 14.0 | 0.00 | 0.00 | 0.00 | 42 | 1020.3 |
| 20260502130304 | 70 | 81 | 8.0 | 14.0 | 0.00 | 0.00 | 0.00 | 42 | 1020.2 |
| 20260502130204 | 70 | 80 | 8.0 | 14.0 | 0.00 | 0.00 | 0.00 | 43 | 1020.2 |
| 20260502130105 | 70 | 81 | 8.0 | 14.0 | 0.00 | 0.00 | 0.00 | 42 | 1020.3 |
| 20260502123805 | 70 | 76 | 7.0 | 14.0 | 0.00 | 0.00 | 0.00 | 42 | 1020.6 |
| 20260502123705 | 70 | 78 | 6.0 | 14.0 | 0.00 | 0.00 | 0.00 | 41 | 1020.6 |
| 20260502123605 | 70 | 79 | 6.0 | 14.0 | 0.00 | 0.00 | 0.00 | 41 | 1020.6 |
| 20260502123505 | 71 | 81 | 6.0 | 14.0 | 0.00 | 0.00 | 0.00 | 42 | 1020.6 |
| 20260502123304 | 70 | 79 | 6.0 | 14.0 | 0.00 | 0.00 | 0.00 | 42 | 1020.7 |
| 20260502123104 | 70 | 77 | 7.0 | 12.0 | 0.00 | 0.00 | 0.00 | 42 | 1020.7 |
| 20260502123005 | 70 | 74 | 7.0 | 12.0 | 0.00 | 0.00 | 0.00 | 42 | 1020.6 |
| 20260502122905 | 70 | 72 | 7.0 | 12.0 | 0.00 | 0.00 | 0.00 | 42 | 1020.6 |
| 20260502122804 | 70 | 72 | 7.0 | 12.0 | 0.00 | 0.00 | 0.00 | 43 | 1020.7 |
| 20260502122705 | 70 | 72 | 8.0 | 12.0 | 0.00 | 0.00 | 0.00 | 43 | 1020.9 |
| 20260502122504 | 69 | 74 | 8.0 | 12.0 | 0.00 | 0.00 | 0.00 | 43 | 1020.8 |
| 20260502122414 | 69 | 75 | 7.0 | 12.0 | 0.00 | 0.00 | 0.00 | 43 | 1020.8 |
| 20260502122306 | 69 | 76 | 7.0 | 12.0 | 0.00 | 0.00 | 0.00 | 43 | 1020.9 |
| 20260502122205 | 69 | 74 | 7.0 | 12.0 | 0.00 | 0.00 | 0.00 | 43 | 1020.8 |
| 20260502122104 | 69 | 73 | 7.0 | 12.0 | 0.00 | 0.00 | 0.00 | 43 | 1020.9 |
| 20260502122004 | 69 | 74 | 7.0 | 12.0 | 0.00 | 0.00 | 0.00 | 42 | 1020.9 |
| 20260502121904 | 69 | 75 | 6.0 | 12.0 | 0.00 | 0.00 | 0.00 | 42 | 1020.8 |
| 20260502121804 | 70 | 77 | 6.0 | 12.0 | 0.00 | 0.00 | 0.00 | 41 | 1020.9 |
| 20260502121712 | 70 | 78 | 6.0 | 12.0 | 0.00 | 0.00 | 0.00 | 42 | 1020.8 |
| 20260502121604 | 70 | 80 | 6.0 | 11.0 | 0.00 | 0.00 | 0.00 | 42 | 1020.9 |
| 20260502121504 | 70 | 79 | 6.0 | 11.0 | 0.00 | 0.00 | 0.00 | 43 | 1021.0 |
| 20260502121305 | 69 | 77 | 7.0 | 12.0 | 0.00 | 0.00 | 0.00 | 43 | 1021.0 |
| 20260502121105 | 69 | 78 | 7.0 | 12.0 | 0.00 | 0.00 | 0.00 | 43 | 1021.0 |
| 20260502121008 | 69 | 79 | 7.0 | 12.0 | 0.00 | 0.00 | 0.00 | 43 | 1021.1 |
| 20260502120905 | 69 | 79 | 8.0 | 12.0 | 0.00 | 0.00 | 0.00 | 43 | 1021.2 |
| 20260502120805 | 69 | 79 | 8.0 | 14.0 | 0.00 | 0.00 | 0.00 | 44 | 1021.1 |
| 20260502120704 | 69 | 81 | 8.0 | 14.0 | 0.00 | 0.00 | 0.00 | 44 | 1021.2 |
| 20260502120304 | 69 | 83 | 7.0 | 14.0 | 0.00 | 0.00 | 0.00 | 44 | 1021.2 |
| 20260502120204 | 69 | 84 | 7.0 | 14.0 | 0.00 | 0.00 | 0.00 | 43 | 1021.3 |
| 20260502120104 | 68 | 87 | 7.0 | 14.0 | 0.00 | 0.00 | 0.00 | 44 | 1021.3 |
| 20260502115905 | 69 | 88 | 7.0 | 14.0 | 0.00 | 0.00 | 0.00 | 43 | 1021.4 |
| 20260502115804 | 69 | 90 | 7.0 | 13.0 | 0.00 | 0.00 | 0.00 | 43 | 1021.3 |
| 20260502115704 | 69 | 90 | 7.0 | 14.0 | 0.00 | 0.00 | 0.00 | 42 | 1021.3 |
| 20260502115604 | 69 | 91 | 6.0 | 14.0 | 0.00 | 0.00 | 0.00 | 43 | 1021.4 |
| 20260502115505 | 69 | 91 | 7.0 | 14.0 | 0.00 | 0.00 | 0.00 | 43 | 1021.4 |
| 20260502115405 | 69 | 90 | 7.0 | 14.0 | 0.00 | 0.00 | 0.00 | 43 | 1021.3 |
| 20260502115310 | 69 | 90 | 7.0 | 14.0 | 0.00 | 0.00 | 0.00 | 42 | 1021.3 |
| 20260502115205 | 69 | 90 | 7.0 | 14.0 | 0.00 | 0.00 | 0.00 | 42 | 1021.4 |
| 20260502115104 | 69 | 90 | 8.0 | 14.0 | 0.00 | 0.00 | 0.00 | 42 | 1021.4 |
| 20260502115005 | 69 | 90 | 8.0 | 14.0 | 0.00 | 0.00 | 0.00 | 42 | 1021.4 |
| 20260502114905 | 69 | 90 | 8.0 | 14.0 | 0.00 | 0.00 | 0.00 | 42 | 1021.4 |
| 20260502114804 | 68 | 88 | 8.0 | 14.0 | 0.00 | 0.00 | 0.00 | 43 | 1021.5 |
| 20260502114704 | 68 | 88 | 8.0 | 13.0 | 0.00 | 0.00 | 0.00 | 43 | 1021.5 |
| 20260502114506 | 68 | 87 | 8.0 | 13.0 | 0.00 | 0.00 | 0.00 | 43 | 1021.6 |
| 20260502114305 | 68 | 86 | 8.0 | 13.0 | 0.00 | 0.00 | 0.00 | 43 | 1021.7 |
| 20260502114204 | 68 | 84 | 8.0 | 13.0 | 0.00 | 0.00 | 0.00 | 43 | 1021.5 |
| 20260502114004 | 68 | 83 | 8.0 | 13.0 | 0.00 | 0.00 | 0.00 | 43 | 1021.6 |
| 20260502113904 | 68 | 83 | 8.0 | 13.0 | 0.00 | 0.00 | 0.00 | 43 | 1021.7 |
| 20260502113805 | 68 | 84 | 8.0 | 13.0 | 0.00 | 0.00 | 0.00 | 43 | 1021.6 |
| 20260502113704 | 68 | 82 | 7.0 | 13.0 | 0.00 | 0.00 | 0.00 | 43 | 1021.7 |
| 20260502113613 | 68 | 82 | 7.0 | 13.0 | 0.00 | 0.00 | 0.00 | 43 | 1021.7 |
| 20260502113505 | 68 | 81 | 7.0 | 13.0 | 0.00 | 0.00 | 0.00 | 44 | 1021.7 |
| 20260502113404 | 68 | 80 | 7.0 | 12.0 | 0.00 | 0.00 | 0.00 | 44 | 1021.8 |
| 20260502113304 | 68 | 80 | 7.0 | 12.0 | 0.00 | 0.00 | 0.00 | 43 | 1021.7 |
| 20260502113205 | 68 | 81 | 7.0 | 12.0 | 0.00 | 0.00 | 0.00 | 43 | 1021.8 |
| 20260502113105 | 68 | 80 | 7.0 | 12.0 | 0.00 | 0.00 | 0.00 | 43 | 1021.9 |
| 20260502113004 | 68 | 78 | 6.0 | 11.0 | 0.00 | 0.00 | 0.00 | 43 | 1021.8 |
| 20260502112912 | 68 | 79 | 5.0 | 11.0 | 0.00 | 0.00 | 0.00 | 43 | 1021.8 |
| 20260502112804 | 68 | 81 | 5.0 | 11.0 | 0.00 | 0.00 | 0.00 | 43 | 1021.8 |
| 20260502112705 | 68 | 81 | 5.0 | 11.0 | 0.00 | 0.00 | 0.00 | 43 | 1021.9 |
| 20260502112604 | 68 | 83 | 5.0 | 10.0 | 0.00 | 0.00 | 0.00 | 42 | 1021.9 |
| 20260502112404 | 68 | 86 | 5.0 | 10.0 | 0.00 | 0.00 | 0.00 | 42 | 1021.8 |
| 20260502112306 | 69 | 88 | 5.0 | 10.0 | 0.00 | 0.00 | 0.00 | 42 | 1021.8 |
| 20260502112104 | 68 | 87 | 6.0 | 11.0 | 0.00 | 0.00 | 0.00 | 42 | 1021.9 |
| 20260502112005 | 68 | 90 | 6.0 | 11.0 | 0.00 | 0.00 | 0.00 | 42 | 1021.9 |
| 20260502111905 | 68 | 89 | 6.0 | 11.0 | 0.00 | 0.00 | 0.00 | 42 | 1021.9 |
| 20260502111805 | 68 | 88 | 6.0 | 11.0 | 0.00 | 0.00 | 0.00 | 43 | 1022.0 |
| 20260502111704 | 67 | 89 | 6.0 | 11.0 | 0.00 | 0.00 | 0.00 | 43 | 1022.1 |
| 20260502111604 | 67 | 90 | 6.0 | 11.0 | 0.00 | 0.00 | 0.00 | 42 | 1022.0 |
| 20260502111510 | 67 | 91 | 6.0 | 11.0 | 0.00 | 0.00 | 0.00 | 43 | 1022.1 |
| 20260502111204 | 68 | 90 | 6.0 | 11.0 | 0.00 | 0.00 | 0.00 | 42 | 1022.1 |
| 20260502111005 | 68 | 90 | 6.0 | 11.0 | 0.00 | 0.00 | 0.00 | 42 | 1022.1 |
| 20260502110904 | 68 | 90 | 5.0 | 11.0 | 0.00 | 0.00 | 0.00 | 42 | 1022.2 |
| 20260502110604 | 68 | 93 | 5.0 | 11.0 | 0.00 | 0.00 | 0.00 | 42 | 1022.1 |
| 20260502110304 | 68 | 93 | 5.0 | 11.0 | 0.00 | 0.00 | 0.00 | 43 | 1022.2 |
| 20260502110109 | 68 | 96 | 5.0 | 11.0 | 0.00 | 0.00 | 0.00 | 42 | 1022.3 |
| 20260502105804 | 68 | 91 | 6.0 | 10.0 | 0.00 | 0.00 | 0.00 | 43 | 1022.4 |
| 20260502105705 | 67 | 90 | 6.0 | 10.0 | 0.00 | 0.00 | 0.00 | 43 | 1022.4 |
| 20260502105505 | 67 | 89 | 6.0 | 11.0 | 0.00 | 0.00 | 0.00 | 44 | 1022.4 |
| 20260502105410 | 67 | 88 | 6.0 | 11.0 | 0.00 | 0.00 | 0.00 | 44 | 1022.5 |
| 20260502105205 | 67 | 88 | 7.0 | 11.0 | 0.00 | 0.00 | 0.00 | 44 | 1022.6 |
| 20260502105104 | 67 | 85 | 7.0 | 11.0 | 0.00 | 0.00 | 0.00 | 44 | 1022.5 |
| 20260502105004 | 67 | 85 | 7.0 | 11.0 | 0.00 | 0.00 | 0.00 | 44 | 1022.4 |
| 20260502104905 | 67 | 86 | 7.0 | 11.0 | 0.00 | 0.00 | 0.00 | 44 | 1022.5 |
| 20260502104804 | 67 | 87 | 7.0 | 11.0 | 0.00 | 0.00 | 0.00 | 44 | 1022.6 |
| 20260502104704 | 66 | 86 | 7.0 | 11.0 | 0.00 | 0.00 | 0.00 | 44 | 1022.6 |
| 20260502104604 | 66 | 86 | 7.0 | 11.0 | 0.00 | 0.00 | 0.00 | 43 | 1022.6 |
| 20260502104505 | 66 | 85 | 7.0 | 11.0 | 0.00 | 0.00 | 0.00 | 44 | 1022.7 |
| 20260502104412 | 66 | 85 | 7.0 | 11.0 | 0.00 | 0.00 | 0.00 | 44 | 1022.7 |
| 20260502104204 | 66 | 86 | 6.0 | 10.0 | 0.00 | 0.00 | 0.00 | 44 | 1022.6 |
| 20260502104104 | 67 | 88 | 6.0 | 10.0 | 0.00 | 0.00 | 0.00 | 44 | 1022.7 |
| 20260502104005 | 66 | 112 | 2.0 | 4.0 | 0.00 | 0.00 | 0.00 | 45 | 1022.7 |
| 20260502103904 | 66 | 108 | 2.0 | 3.0 | 0.00 | 0.00 | 0.00 | 45 | 1022.8 |
| 20260502103805 | 66 | 125 | 2.0 | 3.0 | 0.00 | 0.00 | 0.00 | 45 | 1022.7 |
| 20260502102005 | 67 | 90 | 5.0 | 10.0 | 0.00 | 0.00 | 0.00 | 47 | 1023.0 |
| 20260502101805 | 67 | 88 | 4.0 | 9.0 | 0.00 | 0.00 | 0.00 | 47 | 1023.1 |
| 20260502101704 | 67 | 85 | 4.0 | 9.0 | 0.00 | 0.00 | 0.00 | 47 | 1023.2 |
| 20260502101604 | 67 | 83 | 4.0 | 9.0 | 0.00 | 0.00 | 0.00 | 47 | 1023.1 |
| 20260502101513 | 67 | 83 | 4.0 | 9.0 | 0.00 | 0.00 | 0.00 | 47 | 1023.1 |
| 20260502101404 | 67 | 81 | 4.0 | 9.0 | 0.00 | 0.00 | 0.00 | 47 | 1023.1 |
| 20260502101304 | 67 | 83 | 4.0 | 9.0 | 0.00 | 0.00 | 0.00 | 47 | 1023.2 |
| 20260502101216 | 67 | 89 | 4.0 | 9.0 | 0.00 | 0.00 | 0.00 | 47 | 1023.2 |
| 20260502101104 | 67 | 90 | 4.0 | 9.0 | 0.00 | 0.00 | 0.00 | 46 | 1023.2 |
| 20260502101004 | 67 | 87 | 3.0 | 9.0 | 0.00 | 0.00 | 0.00 | 46 | 1023.2 |
| 20260502100904 | 67 | 88 | 3.0 | 8.0 | 0.00 | 0.00 | 0.00 | 46 | 1023.1 |
| 20260502100803 | 67 | 89 | 4.0 | 8.0 | 0.00 | 0.00 | 0.00 | 46 | 1023.2 |
| 20260502100704 | 67 | 90 | 4.0 | 8.0 | 0.00 | 0.00 | 0.00 | 46 | 1023.2 |
| 20260502100626 | 67 | 90 | 4.0 | 8.0 | 0.00 | 0.00 | 0.00 | 46 | 1023.3 |
| 20260502100504 | 67 | 90 | 4.0 | 8.0 | 0.00 | 0.00 | 0.00 | 46 | 1023.2 |
| 20260502100405 | 67 | 90 | 4.0 | 8.0 | 0.00 | 0.00 | 0.00 | 46 | 1023.3 |
| 20260502100204 | 66 | 91 | 5.0 | 10.0 | 0.00 | 0.00 | 0.00 | 47 | 1023.4 |
| 20260502100104 | 66 | 90 | 5.0 | 10.0 | 0.00 | 0.00 | 0.00 | 47 | 1023.3 |
| 20260502091505 | 64 | 97 | 3.0 | 7.0 | 0.00 | 0.00 | 0.00 | 52 | 1024.0 |
| 20260502091404 | 64 | 97 | 3.0 | 6.0 | 0.00 | 0.00 | 0.00 | 52 | 1024.0 |
| 20260502091304 | 64 | 100 | 3.0 | 6.0 | 0.00 | 0.00 | 0.00 | 51 | 1024.1 |
| 20260502091204 | 64 | 101 | 3.0 | 6.0 | 0.00 | 0.00 | 0.00 | 52 | 1024.1 |
| 20260502091104 | 64 | 99 | 3.0 | 6.0 | 0.00 | 0.00 | 0.00 | 50 | 1024.1 |
| 20260502091005 | 64 | 95 | 3.0 | 6.0 | 0.00 | 0.00 | 0.00 | 51 | 1024.1 |
| 20260502090804 | 64 | 88 | 3.0 | 6.0 | 0.00 | 0.00 | 0.00 | 52 | 1024.1 |
| 20260502090710 | 64 | 90 | 3.0 | 6.0 | 0.00 | 0.00 | 0.00 | 52 | 1024.2 |
| 20260502090604 | 64 | 89 | 3.0 | 6.0 | 0.00 | 0.00 | 0.00 | 52 | 1024.2 |
| 20260502090504 | 64 | 88 | 2.0 | 5.0 | 0.00 | 0.00 | 0.00 | 53 | 1024.2 |
| 20260502090404 | 63 | 86 | 2.0 | 5.0 | 0.00 | 0.00 | 0.00 | 54 | 1024.2 |
| 20260502090304 | 63 | 82 | 2.0 | 5.0 | 0.00 | 0.00 | 0.00 | 55 | 1024.1 |
| 20260502090204 | 64 | 78 | 2.0 | 5.0 | 0.00 | 0.00 | 0.00 | 56 | 1024.2 |
| 20260502071504 | 56 | 348 | 3.0 | 5.0 | 0.00 | 0.00 | 0.00 | 69 | 1025.1 |
| 20260502071311 | 56 | 346 | 3.0 | 4.0 | 0.00 | 0.00 | 0.00 | 69 | 1025.2 |
| 20260502071103 | 56 | 347 | 3.0 | 4.0 | 0.00 | 0.00 | 0.00 | 69 | 1025.2 |
| 20260502071004 | 56 | 346 | 3.0 | 5.0 | 0.00 | 0.00 | 0.00 | 69 | 1025.2 |
| 20260502070904 | 56 | 347 | 3.0 | 5.0 | 0.00 | 0.00 | 0.00 | 70 | 1025.2 |
| 20260502070704 | 56 | 349 | 3.0 | 5.0 | 0.00 | 0.00 | 0.00 | 70 | 1025.3 |
| 20260502070505 | 56 | 349 | 3.0 | 6.0 | 0.00 | 0.00 | 0.00 | 70 | 1025.3 |
| 20260502070403 | 56 | 349 | 3.0 | 6.0 | 0.00 | 0.00 | 0.00 | 70 | 1025.3 |
| 20260502070310 | 56 | 351 | 3.0 | 6.0 | 0.00 | 0.00 | 0.00 | 70 | 1025.3 |
| 20260502070105 | 56 | 351 | 3.0 | 6.0 | 0.00 | 0.00 | 0.00 | 71 | 1025.2 |
| 20260502070004 | 56 | 353 | 3.0 | 6.0 | 0.00 | 0.00 | 0.00 | 71 | 1025.3 |
| 20260502065904 | 56 | 354 | 3.0 | 6.0 | 0.00 | 0.00 | 0.00 | 71 | 1025.1 |
| 20260502065803 | 56 | 355 | 3.0 | 6.0 | 0.00 | 0.00 | 0.00 | 70 | 1025.2 |
| 20260502065705 | 56 | 354 | 3.0 | 6.0 | 0.00 | 0.00 | 0.00 | 70 | 1025.2 |
| 20260502065504 | 56 | 358 | 3.0 | 6.0 | 0.00 | 0.00 | 0.00 | 71 | 1025.3 |
| 20260502065404 | 55 | 358 | 3.0 | 6.0 | 0.00 | 0.00 | 0.00 | 71 | 1025.4 |
| 20260502065306 | 55 | 356 | 3.0 | 6.0 | 0.00 | 0.00 | 0.00 | 71 | 1025.4 |
| 20260502065204 | 55 | 356 | 3.0 | 6.0 | 0.00 | 0.00 | 0.00 | 72 | 1025.4 |
| 20260502065104 | 55 | 355 | 3.0 | 6.0 | 0.00 | 0.00 | 0.00 | 71 | 1025.4 |
| 20260502065011 | 55 | 351 | 3.0 | 6.0 | 0.00 | 0.00 | 0.00 | 71 | 1025.4 |
| 20260502064904 | 55 | 347 | 3.0 | 6.0 | 0.00 | 0.00 | 0.00 | 71 | 1025.5 |
| 20260502064804 | 55 | 344 | 3.0 | 6.0 | 0.00 | 0.00 | 0.00 | 72 | 1025.4 |
| 20260502064604 | 55 | 339 | 3.0 | 6.0 | 0.00 | 0.00 | 0.00 | 72 | 1025.5 |
| 20260502064505 | 55 | 337 | 3.0 | 6.0 | 0.00 | 0.00 | 0.00 | 72 | 1025.6 |
| 20260502064304 | 55 | 335 | 3.0 | 6.0 | 0.00 | 0.00 | 0.00 | 73 | 1025.6 |
| 20260502064104 | 54 | 336 | 3.0 | 6.0 | 0.00 | 0.00 | 0.00 | 74 | 1025.6 |
| 20260502063904 | 54 | 340 | 3.0 | 6.0 | 0.00 | 0.00 | 0.00 | 74 | 1025.6 |
| 20260502063704 | 54 | 341 | 4.0 | 6.0 | 0.00 | 0.00 | 0.00 | 73 | 1025.4 |
| 20260502063604 | 54 | 340 | 4.0 | 6.0 | 0.00 | 0.00 | 0.00 | 73 | 1025.6 |
| 20260502063504 | 54 | 341 | 3.0 | 6.0 | 0.00 | 0.00 | 0.00 | 73 | 1025.5 |
| 20260502063304 | 54 | 340 | 3.0 | 5.0 | 0.00 | 0.00 | 0.00 | 73 | 1025.5 |
| 20260502063204 | 54 | 337 | 3.0 | 5.0 | 0.00 | 0.00 | 0.00 | 74 | 1025.5 |
| 20260502063103 | 54 | 335 | 3.0 | 5.0 | 0.00 | 0.00 | 0.00 | 74 | 1025.6 |
| 20260502063011 | 54 | 335 | 3.0 | 5.0 | 0.00 | 0.00 | 0.00 | 74 | 1025.5 |
| 20260502062804 | 54 | 335 | 3.0 | 5.0 | 0.00 | 0.00 | 0.00 | 74 | 1025.6 |
| 20260502062704 | 54 | 333 | 3.0 | 5.0 | 0.00 | 0.00 | 0.00 | 75 | 1025.5 |
| 20260502062604 | 54 | 334 | 3.0 | 5.0 | 0.00 | 0.00 | 0.00 | 75 | 1025.6 |
| 20260502062504 | 53 | 334 | 3.0 | 5.0 | 0.00 | 0.00 | 0.00 | 76 | 1025.6 |
| 20260502062404 | 53 | 335 | 3.0 | 5.0 | 0.00 | 0.00 | 0.00 | 75 | 1025.6 |
| 20260502062306 | 53 | 335 | 3.0 | 5.0 | 0.00 | 0.00 | 0.00 | 75 | 1025.5 |
| 20260502062204 | 53 | 336 | 3.0 | 5.0 | 0.00 | 0.00 | 0.00 | 75 | 1025.6 |
| 20260502062104 | 53 | 336 | 3.0 | 5.0 | 0.00 | 0.00 | 0.00 | 75 | 1025.5 |
| 20260502062011 | 53 | 334 | 3.0 | 5.0 | 0.00 | 0.00 | 0.00 | 75 | 1025.6 |
| 20260502061903 | 53 | 333 | 3.0 | 5.0 | 0.00 | 0.00 | 0.00 | 75 | 1025.5 |
| 20260502061803 | 53 | 335 | 3.0 | 5.0 | 0.00 | 0.00 | 0.00 | 75 | 1025.5 |
| 20260502061704 | 53 | 335 | 3.0 | 5.0 | 0.00 | 0.00 | 0.00 | 76 | 1025.5 |
| 20260502061504 | 53 | 333 | 3.0 | 5.0 | 0.00 | 0.00 | 0.00 | 76 | 1025.5 |
| 20260502061404 | 53 | 334 | 3.0 | 5.0 | 0.00 | 0.00 | 0.00 | 77 | 1025.5 |
| 20260502061204 | 52 | 334 | 3.0 | 5.0 | 0.00 | 0.00 | 0.00 | 76 | 1025.4 |
| 20260502061104 | 53 | 337 | 3.0 | 5.0 | 0.00 | 0.00 | 0.00 | 76 | 1025.5 |
| 20260502060904 | 52 | 337 | 3.0 | 5.0 | 0.00 | 0.00 | 0.00 | 76 | 1025.6 |
| 20260502060804 | 53 | 334 | 3.0 | 5.0 | 0.00 | 0.00 | 0.00 | 76 | 1025.5 |
| 20260502060704 | 53 | 334 | 3.0 | 5.0 | 0.00 | 0.00 | 0.00 | 76 | 1025.6 |
| 20260502060604 | 53 | 337 | 2.0 | 5.0 | 0.00 | 0.00 | 0.00 | 77 | 1025.6 |
| 20260502060404 | 53 | 336 | 2.0 | 4.0 | 0.00 | 0.00 | 0.00 | 76 | 1025.6 |
| 20260502060303 | 53 | 336 | 2.0 | 4.0 | 0.00 | 0.00 | 0.00 | 76 | 1025.6 |
| 20260502060204 | 53 | 337 | 2.0 | 4.0 | 0.00 | 0.00 | 0.00 | 76 | 1025.6 |
| 20260502060104 | 53 | 336 | 2.0 | 4.0 | 0.00 | 0.00 | 0.00 | 76 | 1025.6 |
| 20260502060011 | 53 | 338 | 2.0 | 4.0 | 0.00 | 0.00 | 0.00 | 76 | 1025.6 |
| 20260502055904 | 53 | 339 | 2.0 | 4.0 | 0.00 | 0.00 | 0.00 | 76 | 1025.6 |
| 20260502055804 | 53 | 341 | 2.0 | 4.0 | 0.00 | 0.00 | 0.00 | 77 | 1025.5 |
| 20260502055704 | 53 | 343 | 2.0 | 5.0 | 0.00 | 0.00 | 0.00 | 77 | 1025.6 |
| 20260502055604 | 53 | 345 | 3.0 | 5.0 | 0.00 | 0.00 | 0.00 | 78 | 1025.7 |
| 20260502055505 | 52 | 344 | 3.0 | 5.0 | 0.00 | 0.00 | 0.00 | 77 | 1025.7 |
| 20260502055403 | 52 | 344 | 3.0 | 5.0 | 0.00 | 0.00 | 0.00 | 77 | 1025.6 |
| 20260502055204 | 52 | 343 | 3.0 | 5.0 | 0.00 | 0.00 | 0.00 | 77 | 1025.7 |
| 20260502055104 | 52 | 342 | 3.0 | 5.0 | 0.00 | 0.00 | 0.00 | 77 | 1025.7 |
| 20260502054904 | 52 | 341 | 3.0 | 5.0 | 0.00 | 0.00 | 0.00 | 77 | 1025.7 |
| 20260502054804 | 52 | 340 | 3.0 | 5.0 | 0.00 | 0.00 | 0.00 | 77 | 1025.7 |
| 20260502054704 | 52 | 338 | 2.0 | 5.0 | 0.00 | 0.00 | 0.00 | 77 | 1025.7 |
| 20260502054604 | 52 | 334 | 2.0 | 4.0 | 0.00 | 0.00 | 0.00 | 77 | 1025.7 |
| 20260502054505 | 52 | 333 | 2.0 | 4.0 | 0.00 | 0.00 | 0.00 | 77 | 1025.8 |
| 20260502054405 | 52 | 334 | 2.0 | 4.0 | 0.00 | 0.00 | 0.00 | 77 | 1025.7 |
| 20260502054304 | 52 | 334 | 2.0 | 4.0 | 0.00 | 0.00 | 0.00 | 77 | 1025.7 |
| 20260502054204 | 52 | 333 | 2.0 | 4.0 | 0.00 | 0.00 | 0.00 | 77 | 1025.7 |
| 20260502054104 | 52 | 334 | 2.0 | 4.0 | 0.00 | 0.00 | 0.00 | 77 | 1025.7 |
| 20260502054012 | 52 | 334 | 2.0 | 4.0 | 0.00 | 0.00 | 0.00 | 77 | 1025.6 |
| 20260502053904 | 52 | 334 | 2.0 | 4.0 | 0.00 | 0.00 | 0.00 | 77 | 1025.7 |
| 20260502053804 | 52 | 334 | 2.0 | 4.0 | 0.00 | 0.00 | 0.00 | 77 | 1025.6 |
| 20260502053704 | 52 | 334 | 2.0 | 4.0 | 0.00 | 0.00 | 0.00 | 77 | 1025.6 |
| 20260502053604 | 52 | 334 | 2.0 | 4.0 | 0.00 | 0.00 | 0.00 | 77 | 1025.6 |
| 20260502053504 | 52 | 333 | 2.0 | 4.0 | 0.00 | 0.00 | 0.00 | 77 | 1025.7 |
| 20260502053405 | 52 | 331 | 1.0 | 4.0 | 0.00 | 0.00 | 0.00 | 77 | 1025.7 |
| 20260502053204 | 52 | 331 | 1.0 | 4.0 | 0.00 | 0.00 | 0.00 | 77 | 1025.7 |
| 20260502053103 | 52 | 331 | 1.0 | 4.0 | 0.00 | 0.00 | 0.00 | 77 | 1025.7 |
| 20260502053011 | 52 | 329 | 1.0 | 4.0 | 0.00 | 0.00 | 0.00 | 78 | 1025.7 |
| 20260502052905 | 52 | 328 | 1.0 | 4.0 | 0.00 | 0.00 | 0.00 | 78 | 1025.7 |
| 20260502052804 | 52 | 330 | 1.0 | 4.0 | 0.00 | 0.00 | 0.00 | 78 | 1025.7 |
| 20260502052704 | 52 | 337 | 2.0 | 5.0 | 0.00 | 0.00 | 0.00 | 77 | 1025.7 |
| 20260502052604 | 52 | 338 | 2.0 | 5.0 | 0.00 | 0.00 | 0.00 | 77 | 1025.7 |
| 20260502052505 | 52 | 336 | 2.0 | 5.0 | 0.00 | 0.00 | 0.00 | 78 | 1025.7 |
| 20260502052404 | 52 | 336 | 2.0 | 5.0 | 0.00 | 0.00 | 0.00 | 78 | 1025.7 |
| 20260502052306 | 52 | 336 | 2.0 | 5.0 | 0.00 | 0.00 | 0.00 | 78 | 1025.7 |
| 20260502052204 | 52 | 335 | 2.0 | 5.0 | 0.00 | 0.00 | 0.00 | 78 | 1025.7 |
| 20260502052104 | 52 | 335 | 3.0 | 5.0 | 0.00 | 0.00 | 0.00 | 79 | 1025.7 |
| 20260502052011 | 51 | 333 | 3.0 | 5.0 | 0.00 | 0.00 | 0.00 | 78 | 1025.6 |
| 20260502051704 | 51 | 323 | 2.0 | 5.0 | 0.00 | 0.00 | 0.00 | 78 | 1025.6 |
| 20260502051604 | 51 | 321 | 2.0 | 5.0 | 0.00 | 0.00 | 0.00 | 77 | 1025.6 |
| 20260502051504 | 52 | 320 | 2.0 | 5.0 | 0.00 | 0.00 | 0.00 | 78 | 1025.6 |
| 20260502051404 | 51 | 319 | 3.0 | 5.0 | 0.00 | 0.00 | 0.00 | 77 | 1025.7 |
| 20260502051304 | 51 | 319 | 3.0 | 5.0 | 0.00 | 0.00 | 0.00 | 78 | 1025.7 |
| 20260502051204 | 51 | 321 | 3.0 | 5.0 | 0.00 | 0.00 | 0.00 | 77 | 1025.6 |
| 20260502051104 | 51 | 320 | 3.0 | 5.0 | 0.00 | 0.00 | 0.00 | 78 | 1025.7 |
| 20260502051011 | 51 | 321 | 3.0 | 5.0 | 0.00 | 0.00 | 0.00 | 78 | 1025.7 |
| 20260502050904 | 51 | 324 | 3.0 | 5.0 | 0.00 | 0.00 | 0.00 | 78 | 1025.6 |
| 20260502050704 | 51 | 324 | 3.0 | 5.0 | 0.00 | 0.00 | 0.00 | 77 | 1025.6 |
| 20260502050604 | 51 | 325 | 3.0 | 5.0 | 0.00 | 0.00 | 0.00 | 77 | 1025.6 |
| 20260502050404 | 52 | 326 | 3.0 | 5.0 | 0.00 | 0.00 | 0.00 | 77 | 1025.5 |
| 20260502050304 | 52 | 324 | 3.0 | 5.0 | 0.00 | 0.00 | 0.00 | 77 | 1025.6 |
| 20260502050204 | 52 | 320 | 3.0 | 5.0 | 0.00 | 0.00 | 0.00 | 77 | 1025.6 |
| 20260502050104 | 52 | 318 | 3.0 | 5.0 | 0.00 | 0.00 | 0.00 | 77 | 1025.5 |
| 20260502050013 | 52 | 317 | 3.0 | 5.0 | 0.00 | 0.00 | 0.00 | 77 | 1025.6 |
| 20260502045804 | 52 | 315 | 2.0 | 5.0 | 0.00 | 0.00 | 0.00 | 77 | 1025.6 |
| 20260502045704 | 52 | 313 | 2.0 | 5.0 | 0.00 | 0.00 | 0.00 | 77 | 1025.6 |
| 20260502045604 | 52 | 312 | 2.0 | 5.0 | 0.00 | 0.00 | 0.00 | 77 | 1025.5 |
| 20260502045504 | 52 | 307 | 2.0 | 5.0 | 0.00 | 0.00 | 0.00 | 77 | 1025.6 |
| 20260502045404 | 52 | 301 | 1.0 | 4.0 | 0.00 | 0.00 | 0.00 | 77 | 1025.6 |
| 20260502045306 | 52 | 299 | 1.0 | 4.0 | 0.00 | 0.00 | 0.00 | 77 | 1025.6 |
| 20260502045104 | 52 | 297 | 1.0 | 3.0 | 0.00 | 0.00 | 0.00 | 77 | 1025.4 |
| 20260502044904 | 52 | 272 | 1.0 | 3.0 | 0.00 | 0.00 | 0.00 | 77 | 1025.6 |
| 20260502044804 | 52 | 275 | 1.0 | 3.0 | 0.00 | 0.00 | 0.00 | 77 | 1025.5 |
| 20260502044704 | 52 | 273 | 1.0 | 3.0 | 0.00 | 0.00 | 0.00 | 78 | 1025.6 |
| 20260502044604 | 52 | 271 | 1.0 | 3.0 | 0.00 | 0.00 | 0.00 | 78 | 1025.3 |
| 20260502044504 | 51 | 270 | 1.0 | 4.0 | 0.00 | 0.00 | 0.00 | 78 | 1025.4 |
| 20260502044404 | 51 | 270 | 1.0 | 4.0 | 0.00 | 0.00 | 0.00 | 79 | 1025.4 |
| 20260502044303 | 51 | 270 | 1.0 | 4.0 | 0.00 | 0.00 | 0.00 | 79 | 1025.4 |
| 20260502044203 | 51 | 270 | 1.0 | 4.0 | 0.00 | 0.00 | 0.00 | 78 | 1025.4 |
| 20260502043903 | 51 | 262 | 2.0 | 4.0 | 0.00 | 0.00 | 0.00 | 79 | 1025.3 |
| 20260502043803 | 51 | 258 | 2.0 | 4.0 | 0.00 | 0.00 | 0.00 | 78 | 1025.3 |
| 20260502043703 | 51 | 257 | 2.0 | 4.0 | 0.00 | 0.00 | 0.00 | 78 | 1025.3 |
| 20260502043604 | 51 | 256 | 2.0 | 4.0 | 0.00 | 0.00 | 0.00 | 79 | 1025.2 |
| 20260502043504 | 51 | 256 | 2.0 | 4.0 | 0.00 | 0.00 | 0.00 | 79 | 1025.3 |
| 20260502043404 | 51 | 256 | 2.0 | 4.0 | 0.00 | 0.00 | 0.00 | 79 | 1025.3 |
| 20260502043304 | 51 | 257 | 2.0 | 4.0 | 0.00 | 0.00 | 0.00 | 78 | 1025.2 |
| 20260502043204 | 51 | 257 | 2.0 | 4.0 | 0.00 | 0.00 | 0.00 | 78 | 1025.2 |
| 20260502043010 | 51 | 262 | 2.0 | 4.0 | 0.00 | 0.00 | 0.00 | 77 | 1025.2 |
| 20260502042904 | 51 | 267 | 2.0 | 4.0 | 0.00 | 0.00 | 0.00 | 77 | 1025.1 |
| 20260502042804 | 51 | 270 | 2.0 | 4.0 | 0.00 | 0.00 | 0.00 | 77 | 1025.1 |
| 20260502042704 | 51 | 273 | 2.0 | 4.0 | 0.00 | 0.00 | 0.00 | 77 | 1025.3 |
| 20260502042504 | 51 | 280 | 2.0 | 3.0 | 0.00 | 0.00 | 0.00 | 77 | 1025.2 |
| 20260502042404 | 51 | 284 | 1.0 | 3.0 | 0.00 | 0.00 | 0.00 | 77 | 1025.1 |
| 20260502042306 | 51 | 290 | 1.0 | 3.0 | 0.00 | 0.00 | 0.00 | 77 | 1025.2 |
| 20260502042205 | 51 | 295 | 1.0 | 3.0 | 0.00 | 0.00 | 0.00 | 77 | 1025.2 |
| 20260502042104 | 51 | 298 | 1.0 | 3.0 | 0.00 | 0.00 | 0.00 | 77 | 1025.1 |
| 20260502042018 | 52 | 298 | 2.0 | 3.0 | 0.00 | 0.00 | 0.00 | 78 | 1025.1 |
| 20260502041904 | 51 | 299 | 2.0 | 4.0 | 0.00 | 0.00 | 0.00 | 78 | 1025.2 |
| 20260502041804 | 51 | 300 | 2.0 | 5.0 | 0.00 | 0.00 | 0.00 | 78 | 1025.2 |
| 20260502041703 | 51 | 300 | 2.0 | 5.0 | 0.00 | 0.00 | 0.00 | 78 | 1025.2 |
| 20260502041604 | 51 | 303 | 2.0 | 5.0 | 0.00 | 0.00 | 0.00 | 78 | 1025.1 |
| 20260502041505 | 51 | 307 | 3.0 | 5.0 | 0.00 | 0.00 | 0.00 | 78 | 1025.2 |
| 20260502041403 | 51 | 308 | 3.0 | 5.0 | 0.00 | 0.00 | 0.00 | 78 | 1025.0 |
| 20260502041203 | 51 | 308 | 3.0 | 5.0 | 0.00 | 0.00 | 0.00 | 78 | 1025.1 |
| 20260502041010 | 51 | 311 | 3.0 | 5.0 | 0.00 | 0.00 | 0.00 | 79 | 1025.1 |
| 20260502040904 | 51 | 313 | 3.0 | 5.0 | 0.00 | 0.00 | 0.00 | 79 | 1025.1 |
| 20260502040804 | 51 | 316 | 3.0 | 5.0 | 0.00 | 0.00 | 0.00 | 79 | 1025.2 |
| 20260502040703 | 51 | 319 | 3.0 | 4.0 | 0.00 | 0.00 | 0.00 | 78 | 1025.2 |
| 20260502040404 | 51 | 321 | 3.0 | 4.0 | 0.00 | 0.00 | 0.00 | 79 | 1025.3 |
| 20260502040303 | 51 | 321 | 3.0 | 4.0 | 0.00 | 0.00 | 0.00 | 79 | 1025.2 |
| 20260502040204 | 51 | 322 | 3.0 | 4.0 | 0.00 | 0.00 | 0.00 | 79 | 1025.2 |
| 20260502040104 | 51 | 323 | 3.0 | 4.0 | 0.00 | 0.00 | 0.00 | 78 | 1025.2 |
| 20260502040010 | 51 | 323 | 3.0 | 4.0 | 0.00 | 0.00 | 0.00 | 78 | 1025.2 |
| 20260502035904 | 51 | 323 | 2.0 | 4.0 | 0.00 | 0.00 | 0.00 | 77 | 1025.1 |
| 20260502035804 | 51 | 323 | 2.0 | 4.0 | 0.00 | 0.00 | 0.00 | 77 | 1025.1 |
| 20260502035603 | 51 | 318 | 2.0 | 4.0 | 0.00 | 0.00 | 0.00 | 77 | 1025.1 |
| 20260502035504 | 51 | 316 | 2.0 | 4.0 | 0.00 | 0.00 | 0.00 | 77 | 1025.2 |
| 20260502035306 | 52 | 307 | 1.0 | 3.0 | 0.00 | 0.00 | 0.00 | 77 | 1025.1 |
| 20260502035204 | 51 | 298 | 1.0 | 3.0 | 0.00 | 0.00 | 0.00 | 77 | 1025.1 |
| 20260502035103 | 51 | 289 | 1.0 | 4.0 | 0.00 | 0.00 | 0.00 | 78 | 1024.9 |
| 20260502034904 | 51 | 277 | 2.0 | 5.0 | 0.00 | 0.00 | 0.00 | 78 | 1025.1 |
| 20260502034804 | 51 | 269 | 2.0 | 5.0 | 0.00 | 0.00 | 0.00 | 77 | 1025.1 |
| 20260502034704 | 51 | 261 | 2.0 | 5.0 | 0.00 | 0.00 | 0.00 | 78 | 1025.1 |
| 20260502034604 | 51 | 256 | 2.0 | 5.0 | 0.00 | 0.00 | 0.00 | 78 | 1025.1 |
| 20260502034504 | 51 | 255 | 2.0 | 5.0 | 0.00 | 0.00 | 0.00 | 78 | 1025.0 |
| 20260502034404 | 51 | 250 | 3.0 | 6.0 | 0.00 | 0.00 | 0.00 | 78 | 1025.0 |
| 20260502034304 | 51 | 248 | 3.0 | 6.0 | 0.00 | 0.00 | 0.00 | 78 | 1025.0 |
| 20260502034204 | 51 | 249 | 3.0 | 6.0 | 0.00 | 0.00 | 0.00 | 78 | 1024.9 |
| 20260502034013 | 51 | 247 | 3.0 | 6.0 | 0.00 | 0.00 | 0.00 | 78 | 1025.0 |
| 20260502033804 | 51 | 248 | 3.0 | 6.0 | 0.00 | 0.00 | 0.00 | 78 | 1025.0 |
| 20260502033704 | 51 | 252 | 2.0 | 6.0 | 0.00 | 0.00 | 0.00 | 78 | 1024.9 |
| 20260502033604 | 51 | 253 | 2.0 | 6.0 | 0.00 | 0.00 | 0.00 | 78 | 1024.9 |
| 20260502033504 | 51 | 254 | 2.0 | 6.0 | 0.00 | 0.00 | 0.00 | 77 | 1024.9 |
| 20260502033304 | 51 | 268 | 1.0 | 4.0 | 0.00 | 0.00 | 0.00 | 77 | 1025.0 |
| 20260502033204 | 51 | 277 | 1.0 | 4.0 | 0.00 | 0.00 | 0.00 | 77 | 1024.9 |
| 20260502033104 | 51 | 287 | 1.0 | 4.0 | 0.00 | 0.00 | 0.00 | 77 | 1024.9 |
| 20260502032904 | 51 | 297 | 1.0 | 4.0 | 0.00 | 0.00 | 0.00 | 77 | 1024.9 |
| 20260502032804 | 51 | 298 | 1.0 | 4.0 | 0.00 | 0.00 | 0.00 | 77 | 1024.9 |
| 20260502032604 | 52 | 297 | 2.0 | 4.0 | 0.00 | 0.00 | 0.00 | 77 | 1024.9 |
| 20260502032504 | 51 | 291 | 2.0 | 4.0 | 0.00 | 0.00 | 0.00 | 77 | 1024.9 |
| 20260502032404 | 51 | 287 | 2.0 | 4.0 | 0.00 | 0.00 | 0.00 | 77 | 1024.9 |
| 20260502032306 | 51 | 283 | 2.0 | 4.0 | 0.00 | 0.00 | 0.00 | 77 | 1024.9 |
| 20260502032203 | 51 | 276 | 2.0 | 4.0 | 0.00 | 0.00 | 0.00 | 76 | 1024.8 |
| 20260502032013 | 52 | 264 | 2.0 | 4.0 | 0.00 | 0.00 | 0.00 | 77 | 1025.0 |
| 20260502031904 | 51 | 261 | 2.0 | 4.0 | 0.00 | 0.00 | 0.00 | 77 | 1024.9 |
| 20260502031804 | 51 | 255 | 2.0 | 4.0 | 0.00 | 0.00 | 0.00 | 77 | 1024.9 |
| 20260502031704 | 51 | 254 | 2.0 | 4.0 | 0.00 | 0.00 | 0.00 | 77 | 1024.9 |
| 20260502031504 | 51 | 252 | 2.0 | 5.0 | 0.00 | 0.00 | 0.00 | 78 | 1024.9 |
| 20260502031403 | 51 | 248 | 2.0 | 5.0 | 0.00 | 0.00 | 0.00 | 78 | 1024.9 |
| 20260502031304 | 51 | 248 | 2.0 | 5.0 | 0.00 | 0.00 | 0.00 | 78 | 1024.9 |
| 20260502031104 | 51 | 251 | 2.0 | 5.0 | 0.00 | 0.00 | 0.00 | 77 | 1024.9 |
| 20260502031013 | 51 | 253 | 2.0 | 5.0 | 0.00 | 0.00 | 0.00 | 76 | 1024.9 |
| 20260502030903 | 51 | 255 | 2.0 | 5.0 | 0.00 | 0.00 | 0.00 | 76 | 1024.8 |
| 20260502030804 | 51 | 257 | 2.0 | 5.0 | 0.00 | 0.00 | 0.00 | 76 | 1024.8 |
| 20260502030604 | 51 | 259 | 2.0 | 5.0 | 0.00 | 0.00 | 0.00 | 76 | 1024.9 |
| 20260502030504 | 52 | 263 | 2.0 | 5.0 | 0.00 | 0.00 | 0.00 | 76 | 1024.8 |
| 20260502030404 | 52 | 270 | 2.0 | 5.0 | 0.00 | 0.00 | 0.00 | 76 | 1024.9 |
| 20260502030304 | 52 | 274 | 2.0 | 5.0 | 0.00 | 0.00 | 0.00 | 76 | 1024.8 |
| 20260502030203 | 52 | 276 | 2.0 | 4.0 | 0.00 | 0.00 | 0.00 | 76 | 1024.8 |
| 20260502030104 | 52 | 278 | 2.0 | 4.0 | 0.00 | 0.00 | 0.00 | 75 | 1024.8 |
| 20260502030015 | 52 | 282 | 2.0 | 3.0 | 0.00 | 0.00 | 0.00 | 75 | 1024.8 |
| 20260502025904 | 52 | 286 | 1.0 | 3.0 | 0.00 | 0.00 | 0.00 | 76 | 1024.8 |
| 20260502025804 | 52 | 291 | 1.0 | 3.0 | 0.00 | 0.00 | 0.00 | 76 | 1024.8 |
| 20260502025704 | 52 | 293 | 1.0 | 3.0 | 0.00 | 0.00 | 0.00 | 76 | 1024.8 |
| 20260502025604 | 52 | 295 | 1.0 | 3.0 | 0.00 | 0.00 | 0.00 | 76 | 1024.9 |
| 20260502025404 | 52 | 295 | 1.0 | 3.0 | 0.00 | 0.00 | 0.00 | 76 | 1024.9 |
| 20260502025306 | 52 | 297 | 1.0 | 4.0 | 0.00 | 0.00 | 0.00 | 76 | 1024.8 |
| 20260502025104 | 52 | 310 | 2.0 | 4.0 | 0.00 | 0.00 | 0.00 | 76 | 1024.9 |
| 20260502025013 | 52 | 310 | 2.0 | 4.0 | 0.00 | 0.00 | 0.00 | 76 | 1024.9 |
| 20260502024904 | 52 | 311 | 2.0 | 4.0 | 0.00 | 0.00 | 0.00 | 76 | 1024.8 |
| 20260502024704 | 52 | 311 | 2.0 | 4.0 | 0.00 | 0.00 | 0.00 | 76 | 1024.8 |
| 20260502024605 | 52 | 311 | 2.0 | 4.0 | 0.00 | 0.00 | 0.00 | 76 | 1024.8 |
| 20260502024505 | 52 | 311 | 2.0 | 4.0 | 0.00 | 0.00 | 0.00 | 76 | 1024.8 |
| 20260502024404 | 52 | 310 | 2.0 | 4.0 | 0.00 | 0.00 | 0.00 | 75 | 1024.8 |
| 20260502024204 | 52 | 304 | 2.0 | 4.0 | 0.00 | 0.00 | 0.00 | 75 | 1024.8 |
| 20260502024103 | 52 | 300 | 2.0 | 4.0 | 0.00 | 0.00 | 0.00 | 75 | 1024.7 |
| 20260502024012 | 52 | 297 | 2.0 | 4.0 | 0.00 | 0.00 | 0.00 | 75 | 1024.8 |
| 20260502023904 | 52 | 293 | 2.0 | 3.0 | 0.00 | 0.00 | 0.00 | 75 | 1024.8 |
| 20260502023803 | 52 | 291 | 1.0 | 3.0 | 0.00 | 0.00 | 0.00 | 75 | 1024.8 |
| 20260502023704 | 52 | 288 | 1.0 | 3.0 | 0.00 | 0.00 | 0.00 | 75 | 1024.8 |
| 20260502023604 | 52 | 282 | 1.0 | 3.0 | 0.00 | 0.00 | 0.00 | 76 | 1024.8 |
| 20260502023504 | 52 | 277 | 1.0 | 3.0 | 0.00 | 0.00 | 0.00 | 76 | 1024.8 |
| 20260502023404 | 52 | 274 | 1.0 | 3.0 | 0.00 | 0.00 | 0.00 | 76 | 1024.9 |
| 20260502023304 | 52 | 272 | 1.0 | 3.0 | 0.00 | 0.00 | 0.00 | 76 | 1024.8 |
| 20260502023204 | 52 | 270 | 1.0 | 3.0 | 0.00 | 0.00 | 0.00 | 76 | 1024.8 |
| 20260502023104 | 52 | 268 | 1.0 | 3.0 | 0.00 | 0.00 | 0.00 | 76 | 1024.8 |
| 20260502023012 | 52 | 264 | 1.0 | 3.0 | 0.00 | 0.00 | 0.00 | 76 | 1024.9 |
| 20260502022904 | 52 | 262 | 1.0 | 3.0 | 0.00 | 0.00 | 0.00 | 76 | 1024.8 |
| 20260502022804 | 52 | 258 | 2.0 | 3.0 | 0.00 | 0.00 | 0.00 | 76 | 1024.8 |
| 20260502022704 | 52 | 259 | 2.0 | 3.0 | 0.00 | 0.00 | 0.00 | 76 | 1024.9 |
| 20260502022504 | 52 | 259 | 2.0 | 4.0 | 0.00 | 0.00 | 0.00 | 75 | 1024.9 |
| 20260502022404 | 52 | 261 | 2.0 | 4.0 | 0.00 | 0.00 | 0.00 | 76 | 1024.9 |
| 20260502022306 | 52 | 260 | 2.0 | 4.0 | 0.00 | 0.00 | 0.00 | 76 | 1024.8 |
| 20260502022204 | 52 | 259 | 2.0 | 4.0 | 0.00 | 0.00 | 0.00 | 76 | 1024.9 |
| 20260502022104 | 52 | 258 | 2.0 | 4.0 | 0.00 | 0.00 | 0.00 | 76 | 1024.9 |
| 20260502022014 | 52 | 259 | 2.0 | 4.0 | 0.00 | 0.00 | 0.00 | 76 | 1024.9 |
| 20260502021904 | 52 | 257 | 2.0 | 4.0 | 0.00 | 0.00 | 0.00 | 76 | 1025.0 |
| 20260502021804 | 52 | 256 | 2.0 | 4.0 | 0.00 | 0.00 | 0.00 | 76 | 1024.8 |
| 20260502021703 | 52 | 254 | 2.0 | 4.0 | 0.00 | 0.00 | 0.00 | 76 | 1024.9 |
| 20260502021604 | 52 | 254 | 2.0 | 4.0 | 0.00 | 0.00 | 0.00 | 76 | 1024.9 |
| 20260502021404 | 51 | 250 | 2.0 | 4.0 | 0.00 | 0.00 | 0.00 | 77 | 1024.9 |
| 20260502021204 | 51 | 250 | 2.0 | 4.0 | 0.00 | 0.00 | 0.00 | 77 | 1024.9 |
| 20260502021104 | 51 | 250 | 2.0 | 4.0 | 0.00 | 0.00 | 0.00 | 77 | 1024.8 |
| 20260502021004 | 51 | 250 | 2.0 | 4.0 | 0.00 | 0.00 | 0.00 | 76 | 1024.9 |
| 20260502020904 | 51 | 251 | 2.0 | 4.0 | 0.00 | 0.00 | 0.00 | 76 | 1024.8 |
| 20260502020804 | 51 | 250 | 2.0 | 4.0 | 0.00 | 0.00 | 0.00 | 76 | 1024.8 |
| 20260502020703 | 52 | 252 | 2.0 | 4.0 | 0.00 | 0.00 | 0.00 | 76 | 1024.8 |
| 20260502020504 | 52 | 250 | 2.0 | 4.0 | 0.00 | 0.00 | 0.00 | 77 | 1024.8 |
| 20260502020404 | 52 | 248 | 2.0 | 5.0 | 0.00 | 0.00 | 0.00 | 77 | 1024.8 |
| 20260502020314 | 52 | 246 | 2.0 | 5.0 | 0.00 | 0.00 | 0.00 | 77 | 1024.8 |
| 20260502020204 | 51 | 245 | 2.0 | 5.0 | 0.00 | 0.00 | 0.00 | 77 | 1024.9 |
| 20260502020105 | 51 | 244 | 3.0 | 5.0 | 0.00 | 0.00 | 0.00 | 77 | 1024.8 |
| 20260502020004 | 51 | 243 | 3.0 | 5.0 | 0.00 | 0.00 | 0.00 | 77 | 1024.9 |
| 20260502015905 | 51 | 242 | 3.0 | 5.0 | 0.00 | 0.00 | 0.00 | 77 | 1024.9 |
| 20260502015803 | 51 | 244 | 3.0 | 5.0 | 0.00 | 0.00 | 0.00 | 77 | 1024.7 |
| 20260502015504 | 51 | 243 | 3.0 | 5.0 | 0.00 | 0.00 | 0.00 | 76 | 1024.8 |
| 20260502015404 | 51 | 245 | 2.0 | 4.0 | 0.00 | 0.00 | 0.00 | 76 | 1024.8 |
| 20260502015305 | 51 | 246 | 2.0 | 4.0 | 0.00 | 0.00 | 0.00 | 76 | 1024.8 |
| 20260502015204 | 52 | 247 | 2.0 | 4.0 | 0.00 | 0.00 | 0.00 | 75 | 1024.9 |
| 20260502015104 | 52 | 248 | 2.0 | 4.0 | 0.00 | 0.00 | 0.00 | 76 | 1024.8 |
| 20260502015004 | 52 | 250 | 2.0 | 4.0 | 0.00 | 0.00 | 0.00 | 76 | 1024.8 |
| 20260502014804 | 52 | 251 | 1.0 | 4.0 | 0.00 | 0.00 | 0.00 | 75 | 1024.8 |
| 20260502014703 | 52 | 255 | 1.0 | 3.0 | 0.00 | 0.00 | 0.00 | 75 | 1024.8 |
| 20260502014504 | 52 | 260 | 1.0 | 3.0 | 0.00 | 0.00 | 0.00 | 75 | 1024.8 |
| 20260502014404 | 52 | 258 | 1.0 | 3.0 | 0.00 | 0.00 | 0.00 | 76 | 1024.9 |
| 20260502014304 | 52 | 257 | 1.0 | 3.0 | 0.00 | 0.00 | 0.00 | 75 | 1024.9 |
| 20260502014204 | 52 | 255 | 1.0 | 3.0 | 0.00 | 0.00 | 0.00 | 75 | 1024.8 |
| 20260502014104 | 52 | 253 | 1.0 | 3.0 | 0.00 | 0.00 | 0.00 | 75 | 1024.8 |
| 20260502013904 | 52 | 245 | 2.0 | 4.0 | 0.00 | 0.00 | 0.00 | 76 | 1024.9 |
| 20260502013703 | 52 | 236 | 2.0 | 4.0 | 0.00 | 0.00 | 0.00 | 77 | 1024.9 |
| 20260502013613 | 52 | 233 | 2.0 | 4.0 | 0.00 | 0.00 | 0.00 | 77 | 1024.8 |
| 20260502013404 | 51 | 229 | 3.0 | 5.0 | 0.00 | 0.00 | 0.00 | 77 | 1024.9 |
| 20260502013204 | 51 | 227 | 3.0 | 6.0 | 0.00 | 0.00 | 0.00 | 77 | 1024.8 |
| 20260502013004 | 51 | 226 | 4.0 | 6.0 | 0.00 | 0.00 | 0.00 | 77 | 1024.8 |
| 20260502012909 | 51 | 226 | 4.0 | 6.0 | 0.00 | 0.00 | 0.00 | 76 | 1024.9 |
| 20260502012804 | 51 | 226 | 4.0 | 6.0 | 0.00 | 0.00 | 0.00 | 76 | 1024.8 |
| 20260502012704 | 51 | 226 | 4.0 | 6.0 | 0.00 | 0.00 | 0.00 | 76 | 1024.9 |
| 20260502012604 | 51 | 227 | 4.0 | 6.0 | 0.00 | 0.00 | 0.00 | 76 | 1024.8 |
| 20260502012504 | 51 | 227 | 4.0 | 6.0 | 0.00 | 0.00 | 0.00 | 76 | 1024.8 |
| 20260502012403 | 51 | 228 | 3.0 | 6.0 | 0.00 | 0.00 | 0.00 | 76 | 1024.8 |
| 20260502012306 | 51 | 229 | 3.0 | 6.0 | 0.00 | 0.00 | 0.00 | 76 | 1024.8 |
| 20260502012204 | 51 | 230 | 3.0 | 6.0 | 0.00 | 0.00 | 0.00 | 75 | 1024.8 |
| 20260502012104 | 52 | 231 | 3.0 | 6.0 | 0.00 | 0.00 | 0.00 | 75 | 1024.8 |
| 20260502012005 | 52 | 233 | 2.0 | 5.0 | 0.00 | 0.00 | 0.00 | 75 | 1024.9 |
| 20260502011804 | 52 | 239 | 2.0 | 4.0 | 0.00 | 0.00 | 0.00 | 75 | 1024.8 |
| 20260502011704 | 52 | 240 | 2.0 | 4.0 | 0.00 | 0.00 | 0.00 | 75 | 1024.8 |
| 20260502011603 | 52 | 241 | 2.0 | 4.0 | 0.00 | 0.00 | 0.00 | 75 | 1024.8 |
| 20260502011403 | 52 | 244 | 2.0 | 5.0 | 0.00 | 0.00 | 0.00 | 75 | 1024.8 |
| 20260502011204 | 52 | 242 | 2.0 | 5.0 | 0.00 | 0.00 | 0.00 | 75 | 1024.8 |
| 20260502011104 | 52 | 244 | 3.0 | 5.0 | 0.00 | 0.00 | 0.00 | 75 | 1024.8 |
| 20260502011004 | 52 | 245 | 3.0 | 5.0 | 0.00 | 0.00 | 0.00 | 75 | 1024.8 |
| 20260502010803 | 52 | 243 | 3.0 | 5.0 | 0.00 | 0.00 | 0.00 | 76 | 1024.8 |
| 20260502010703 | 52 | 241 | 3.0 | 7.0 | 0.00 | 0.00 | 0.00 | 76 | 1024.8 |
| 20260502010604 | 52 | 239 | 3.0 | 7.0 | 0.00 | 0.00 | 0.00 | 76 | 1024.8 |
| 20260502010504 | 52 | 237 | 4.0 | 7.0 | 0.00 | 0.00 | 0.00 | 76 | 1024.7 |
| 20260502010204 | 52 | 233 | 4.0 | 7.0 | 0.00 | 0.00 | 0.00 | 76 | 1024.8 |